GFSSGP_sfc_thetae_000.txt.gz
Theta_e
329 328 325 320 305 301 297 298 301 301 299 302 306 303 301 304 303 299 313 317 323 322 330 330 334 336 337 338 340 341 342 343 344 345 344 343 344 344 344 343 343 343 345 346 347 348 347 347 348
323 323 320 314 300 296 296 300 298 301 303 304 304 304 301 301 309 307 308 314 320 321 324 325 332 332 334 336 336 336 338 338 340 340 340 338 336 336 337 338 337 338 339 341 341 342 340 341 343
322 321 313 307 301 295 295 298 300 302 303 301 300 302 302 303 308 308 309 314 318 319 322 324 329 329 330 331 330 331 333 333 334 336 333 331 333 333 333 332 331 332 333 335 337 337 335 335 337
318 313 310 297 296 298 297 299 302 301 300 302 301 297 301 305 307 309 309 313 315 317 319 323 326 325 326 325 325 325 326 326 329 327 325 323 324 324 324 324 323 323 324 326 330 330 329 329 330
314 311 301 298 298 297 300 301 302 301 301 301 300 298 300 304 308 305 304 310 313 313 315 316 322 322 322 322 322 321 320 321 322 321 319 318 318 318 318 318 319 319 319 319 322 321 321 321 323
307 306 297 295 298 300 300 301 300 301 302 300 299 298 300 305 304 303 303 303 309 311 313 313 317 319 318 318 319 318 318 317 316 315 315 314 314 314 314 316 316 317 317 317 317 317 317 317 318
305 304 299 299 298 299 301 303 299 300 301 300 301 297 298 301 303 304 301 301 303 305 308 308 308 311 314 313 313 314 314 314 312 311 310 310 309 310 310 310 313 314 314 315 315 316 316 316 315
305 302 297 298 297 298 301 301 300 300 300 303 304 297 298 301 303 302 300 299 299 301 302 303 304 306 305 304 310 311 311 310 308 307 305 304 308 307 307 306 309 310 311 312 312 313 313 313 314
311 298 296 299 298 298 301 298 301 299 297 299 303 299 299 303 301 298 297 297 298 300 300 301 301 301 303 302 305 307 307 306 306 305 304 307 301 300 302 305 306 308 308 309 310 311 311 310 310
303 300 300 301 300 298 301 300 300 297 297 298 299 301 301 301 297 296 295 295 296 296 297 298 299 299 300 300 299 300 301 300 300 301 300 300 300 299 302 305 308 306 306 307 307 308 307 306 301
304 299 303 301 303 302 301 300 302 298 297 300 299 301 298 298 296 297 297 297 297 296 297 297 298 298 298 296 299 298 299 298 298 298 298 299 299 298 297 297 297 298 302 298 299 299 299 299 299
299 304 305 305 303 301 298 301 299 300 300 302 300 301 299 298 297 297 298 298 298 298 297 296 297 297 298 298 298 298 297 297 297 296 296 296 296 295 294 295 295 295 295 294 294 295 296 296 298
301 302 304 304 302 301 302 299 299 299 302 304 304 301 299 299 298 298 299 300 299 298 297 296 295 296 298 296 296 297 295 296 296 296 294 294 294 292 293 293 293 293 293 292 292 293 293 294 296
302 302 302 302 302 302 299 298 299 300 303 303 303 300 299 300 300 299 298 299 300 299 297 296 295 296 297 296 295 295 295 295 295 294 292 293 292 290 291 291 291 291 291 291 291 291 291 292 294
301 296 299 300 301 299 299 295 296 301 301 300 301 301 300 300 300 300 301 300 301 300 297 295 295 296 295 295 295 295 294 294 293 293 292 291 291 290 289 290 289 290 290 290 290 290 291 291 292
295 296 291 298 300 299 297 290 299 302 300 300 299 298 300 301 301 301 300 300 300 298 296 295 296 295 294 293 294 294 292 292 291 292 291 291 290 289 288 288 288 289 289 288 288 288 288 289 289
295 290 292 296 301 297 295 292 299 298 297 297 297 298 299 300 301 301 300 299 298 297 295 294 293 293 293 293 293 292 291 290 290 289 289 289 290 290 288 288 287 288 288 287 288 287 287 287 287
290 290 293 292 296 296 293 293 297 299 298 298 299 300 300 300 300 301 300 299 298 296 294 293 293 292 292 292 291 290 290 289 288 288 288 289 289 289 287 287 287 287 286 286 287 286 287 287 287
296 293 292 296 298 294 293 294 296 298 298 298 299 300 299 299 300 301 300 298 297 295 293 293 292 291 292 290 288 287 288 287 287 288 288 288 288 288 286 286 286 286 285 285 286 286 286 285 287
293 291 291 295 297 293 292 292 296 296 298 299 299 299 299 297 297 297 297 296 296 294 293 292 292 291 292 291 289 288 288 287 287 288 288 288 287 287 286 285 284 284 284 284 285 285 284 285 286
292 290 290 291 294 292 289 288 291 295 298 298 298 300 297 297 297 295 295 295 294 293 292 292 292 292 291 290 289 287 286 286 285 285 285 287 287 286 286 285 284 284 284 283 284 284 283 282 283
289 294 293 292 288 284 289 283 289 291 294 294 296 298 294 296 297 296 294 293 293 292 292 292 292 291 291 290 288 286 284 282 284 285 286 286 286 285 285 285 284 283 283 283 283 285 283 282 281
291 291 290 289 287 286 286 283 286 292 290 292 295 298 296 297 296 294 293 294 294 292 292 291 291 291 290 289 288 286 283 284 285 285 284 283 284 284 284 284 283 282 282 283 283 282 282 282 281
292 289 288 286 285 280 285 285 283 288 291 292 294 296 296 295 294 294 293 293 293 291 291 291 290 290 290 288 287 286 285 284 283 282 282 282 282 282 283 283 282 281 281 281 282 282 281 281 281
289 286 279 278 277 280 287 284 289 291 293 294 294 295 295 295 293 292 291 291 291 290 290 290 290 289 289 287 286 286 285 284 283 283 282 281 280 280 280 281 280 280 280 280 280 280 280 280 279
287 288 281 274 278 282 282 281 287 295 296 295 296 295 295 294 294 292 292 291 291 290 290 289 289 288 288 287 286 286 285 286 284 283 283 281 280 280 280 279 279 279 279 279 279 278 279 279 279
288 284 290 282 277 278 285 287 292 294 294 294 293 292 293 293 294 293 293 291 290 290 289 289 289 288 288 286 286 285 285 283 283 281 280 279 279 279 278 278 277 278 278 278 277 277 277 278 278
287 289 282 283 273 272 282 283 287 291 294 292 291 291 292 293 293 293 293 292 291 290 290 289 289 288 287 286 285 285 284 282 281 279 278 278 277 277 276 277 276 276 276 276 276 276 277 277 277
283 283 285 286 284 277 278 283 289 290 291 292 292 292 293 294 293 292 292 292 291 290 289 288 288 287 286 284 284 283 282 280 279 279 278 277 277 276 276 276 275 275 275 275 274 275 275 273 274
288 287 288 283 281 280 283 284 293 291 292 292 292 294 294 295 295 294 293 291 290 289 288 287 287 286 286 284 283 281 280 279 278 277 276 276 275 275 275 274 274 274 274 273 273 272 272 271 271

GFSSGP_sfc_thetae_003.txt.gz
Theta_e
323 323 318 313 299 294 291 295 295 296 296 298 302 301 300 301 301 296 312 320 323 328 331 334 340 341 341 343 345 346 346 347 347 346 345 343 341 341 342 341 340 341 343 344 345 344 343 343 345
318 319 314 306 294 289 291 294 295 297 299 299 301 300 300 298 306 307 307 318 321 325 326 328 337 338 340 340 340 341 341 341 342 342 340 338 337 338 338 338 336 337 338 340 340 338 337 337 340
317 317 306 300 293 290 290 294 296 298 298 298 297 299 298 301 304 307 308 316 318 320 323 328 334 335 336 336 337 338 338 337 339 336 335 335 334 332 331 330 329 329 330 333 335 333 332 332 333
311 307 302 293 290 293 292 294 297 297 297 298 299 295 299 303 307 307 311 316 315 318 321 329 331 332 331 331 332 334 333 335 331 329 327 328 326 325 323 323 322 322 323 324 325 324 323 323 325
307 303 295 291 292 294 294 299 298 297 297 297 298 295 297 302 304 307 310 314 313 314 316 321 329 328 328 327 327 327 327 329 325 323 321 321 320 320 320 320 320 320 320 320 321 320 320 320 320
301 299 291 289 292 295 295 299 299 297 297 297 296 294 297 302 301 301 305 311 313 312 313 315 323 326 325 325 324 323 323 322 321 319 318 317 317 316 316 317 317 317 317 318 319 318 318 318 318
301 297 293 292 294 295 296 297 296 297 296 297 299 295 295 298 300 300 300 304 310 311 310 309 311 317 321 322 322 321 320 318 317 316 314 313 312 312 311 312 314 315 316 316 316 316 316 316 316
300 296 291 290 293 294 297 298 298 297 298 299 301 296 295 298 301 299 297 298 302 306 307 306 306 307 306 308 318 318 316 314 312 311 310 311 310 309 308 308 311 312 314 314 314 314 314 311 312
304 292 290 293 294 295 297 296 297 297 295 297 301 298 298 300 299 296 294 294 297 301 301 302 303 303 302 303 309 313 313 310 309 308 308 307 299 300 302 307 308 309 310 310 310 310 309 308 308
299 293 295 298 296 295 297 296 297 295 295 295 297 296 299 298 297 295 293 294 294 296 298 300 299 299 300 303 302 300 302 300 300 300 298 299 297 299 302 306 307 306 305 306 306 306 305 302 299
298 294 298 299 299 298 297 295 298 296 294 296 297 297 297 295 295 295 295 295 295 295 296 298 298 297 298 297 298 297 297 296 297 296 297 297 297 296 296 295 295 295 299 294 296 296 296 295 296
296 300 301 302 301 298 296 298 297 297 300 301 300 299 297 294 294 295 294 295 294 294 296 296 297 297 295 296 297 296 296 295 295 295 296 295 294 293 293 293 293 292 292 291 291 292 293 293 295
297 298 301 301 300 299 299 298 296 297 299 300 300 300 297 296 295 296 296 296 296 295 295 295 296 295 296 296 296 295 295 295 295 293 294 294 292 291 292 291 291 290 290 290 290 290 291 292 293
297 299 298 299 300 299 298 296 297 298 300 299 300 299 296 297 296 294 293 295 296 297 295 295 296 295 296 294 294 294 294 294 294 291 291 292 291 290 290 290 290 289 289 289 289 289 289 290 291
298 295 295 298 298 297 298 294 295 301 298 298 298 298 298 297 297 296 297 296 298 298 296 294 294 294 296 294 294 294 293 294 292 291 290 290 290 289 289 288 288 288 288 288 288 288 289 288 290
292 291 288 294 296 297 297 290 296 299 296 297 298 296 296 297 298 299 299 297 297 296 294 294 296 295 294 294 293 294 292 291 291 290 289 289 289 289 287 287 287 287 287 287 287 287 287 286 287
289 285 287 292 297 295 293 291 296 298 296 296 295 295 297 299 297 300 298 298 297 297 295 293 294 293 293 291 292 291 290 290 289 289 288 288 289 288 287 287 286 287 286 286 286 286 285 285 286
285 286 289 289 292 292 290 292 296 296 294 294 294 294 295 298 300 300 298 298 298 297 295 293 293 292 292 292 290 289 288 287 287 287 287 287 287 288 286 286 286 286 286 285 285 284 285 285 285
289 288 287 292 295 293 293 293 296 297 294 294 295 297 299 298 300 297 298 299 297 294 292 291 291 292 292 291 289 288 287 285 285 286 287 286 286 287 286 285 285 285 285 285 285 285 285 284 285
290 288 288 292 293 292 291 292 294 294 296 297 297 297 299 296 296 296 295 294 294 292 292 291 291 291 292 292 291 287 287 285 285 286 286 286 286 286 286 285 284 284 284 284 284 284 283 284 284
291 288 289 289 291 290 288 286 290 293 294 297 298 298 299 296 294 293 292 293 293 291 290 291 291 291 291 291 289 286 286 284 284 284 284 285 286 286 285 284 284 283 283 283 283 283 283 281 282
288 292 292 289 286 284 287 282 287 290 291 293 295 297 294 292 294 293 292 291 291 291 291 291 291 291 291 289 289 286 287 285 286 286 285 285 285 285 285 284 284 283 283 282 282 284 282 282 280
290 291 289 287 285 283 284 282 284 289 288 292 295 297 296 293 294 293 293 295 292 291 290 290 290 290 290 289 289 287 286 286 283 284 284 284 283 284 283 284 283 282 282 282 282 282 281 282 281
291 287 286 284 283 280 283 283 284 285 289 290 295 296 297 293 293 294 293 292 290 289 290 289 289 289 290 289 288 287 285 283 283 284 283 283 283 282 282 283 281 281 281 281 281 281 281 280 280
288 285 278 276 274 279 285 281 288 289 291 293 295 295 296 293 292 290 290 291 290 288 289 289 289 288 288 288 287 287 285 285 283 284 284 282 282 280 280 281 280 280 280 281 280 280 279 279 279
285 286 279 273 276 282 279 279 286 292 295 294 295 296 292 292 291 291 290 290 289 289 288 289 288 288 287 288 286 286 285 285 284 284 284 283 283 281 280 280 279 279 279 279 279 278 278 279 279
285 283 289 281 271 275 284 286 290 292 292 292 293 289 291 292 290 291 289 289 288 288 288 289 288 288 287 287 286 285 285 285 284 283 283 282 281 280 279 279 278 278 278 278 278 277 278 278 279
287 288 281 281 274 272 282 279 286 290 293 294 291 290 290 291 291 291 289 289 289 289 289 289 289 288 287 287 286 285 285 285 284 282 281 280 280 279 278 277 277 277 277 277 277 277 277 277 278
284 284 285 285 282 280 278 283 289 287 291 292 291 290 290 291 291 291 291 291 290 289 288 288 287 287 286 285 285 285 284 284 282 282 281 280 279 278 277 277 276 276 276 276 275 276 276 274 274
287 286 286 282 280 280 282 284 293 289 289 290 290 291 290 292 292 291 291 290 288 288 287 287 287 287 287 285 284 284 282 281 281 281 279 278 278 277 277 276 276 275 275 274 274 273 274 273 272

GFSSGP_sfc_thetae_006.txt.gz
Theta_e
323 317 317 311 298 293 289 294 294 295 294 296 300 299 299 300 300 295 311 321 327 329 333 337 344 344 345 348 348 348 349 348 347 345 343 342 342 343 341 341 341 342 343 343 342 340 339 339 342
315 317 312 303 294 288 290 294 295 296 297 298 299 299 297 298 304 307 312 322 327 328 329 332 340 342 341 341 341 344 344 344 341 341 340 338 339 340 339 336 335 336 337 340 339 336 334 334 336
314 314 306 298 291 289 289 293 294 296 296 297 296 297 299 300 303 307 309 318 324 322 325 329 338 340 340 340 340 340 340 341 341 338 336 335 334 333 331 328 327 327 329 331 329 327 326 325 328
309 305 300 293 291 294 293 294 296 296 296 297 296 297 298 303 306 308 312 318 319 319 323 331 336 338 337 337 338 337 337 338 336 334 333 330 328 325 324 323 323 322 323 323 323 322 322 321 321
304 301 294 290 290 293 294 296 296 296 295 296 297 294 296 301 305 308 314 316 316 316 320 325 335 334 334 335 336 335 336 332 329 328 326 324 322 321 321 321 320 320 320 321 320 320 319 318 319
300 297 290 288 290 295 294 297 296 295 295 295 295 293 296 299 303 307 311 311 315 315 316 320 328 331 331 331 330 330 331 327 325 323 322 321 320 319 319 318 317 318 318 318 318 318 317 317 318
298 295 291 290 293 294 295 297 295 295 295 296 296 295 296 296 301 303 308 309 311 312 312 313 317 322 327 328 327 326 326 324 322 320 319 317 316 314 315 315 315 317 317 317 317 316 313 313 314
299 294 290 289 290 293 295 295 296 296 296 297 300 295 295 298 299 299 302 306 308 308 309 308 309 311 312 316 323 323 323 321 319 317 316 315 312 310 311 311 313 315 315 314 313 312 310 310 310
301 290 288 290 292 294 295 294 296 296 294 296 299 296 297 298 297 295 294 297 303 306 306 306 306 305 305 307 313 319 319 318 316 314 313 308 299 301 303 310 310 311 311 310 310 308 306 305 306
297 290 291 296 295 294 295 295 295 293 294 294 296 296 297 297 296 295 293 294 300 302 302 304 304 302 301 306 306 305 306 303 301 300 301 298 296 298 302 306 307 306 305 306 306 304 303 299 295
297 293 296 299 298 297 296 294 297 294 294 295 296 297 296 295 295 295 295 296 297 301 301 302 302 301 299 301 300 298 298 297 298 296 297 296 297 297 295 294 294 293 296 292 294 293 293 293 293
294 298 298 301 300 297 296 296 295 295 300 299 299 297 295 294 295 295 295 295 294 294 298 299 299 299 297 296 298 296 296 295 295 295 296 294 293 292 292 292 291 290 290 289 289 290 291 291 292
296 297 299 300 299 297 297 297 296 296 298 298 299 297 295 296 296 296 297 296 294 293 296 297 298 297 297 295 295 294 294 295 294 294 295 294 292 291 291 290 290 288 289 288 288 289 289 290 291
295 297 297 298 298 298 297 296 297 300 297 298 298 298 295 296 296 295 293 295 294 295 295 295 297 296 296 294 295 295 294 294 293 291 292 293 291 290 290 289 289 288 288 287 288 288 288 288 289
296 294 294 296 296 295 296 293 293 301 296 297 297 297 297 296 297 296 297 296 296 296 296 294 296 296 295 295 295 294 294 294 292 290 291 291 290 289 288 288 287 287 287 287 287 287 287 287 288
291 290 287 293 294 295 295 290 296 299 296 297 297 296 296 297 297 299 299 297 296 296 295 295 297 295 295 295 294 294 293 293 292 289 289 290 289 289 287 287 286 287 286 286 286 286 285 285 286
286 284 285 290 295 294 292 291 296 296 294 295 296 294 296 297 297 298 298 297 295 297 296 294 295 294 295 293 293 292 291 291 291 289 287 288 288 288 287 286 286 286 286 285 286 285 284 284 285
284 283 286 287 291 291 290 291 296 296 293 293 294 293 293 294 298 301 297 298 297 297 296 295 294 294 294 293 290 289 289 289 289 288 287 287 287 287 286 285 286 286 285 285 284 284 284 284 284
286 285 285 289 293 290 290 292 295 298 294 292 294 297 298 299 302 298 297 297 296 295 294 293 292 292 293 291 290 289 289 288 286 286 287 286 286 286 285 285 285 285 284 284 284 284 283 283 283
290 288 288 291 293 289 290 290 294 294 297 297 297 297 297 298 300 294 294 293 294 294 293 292 292 292 293 293 293 290 289 285 287 287 287 287 286 285 285 284 284 284 283 283 283 283 282 283 283
289 287 288 288 289 288 286 287 288 292 294 297 295 297 299 300 300 296 293 292 292 292 292 291 292 292 293 292 290 285 285 283 283 284 284 285 285 285 285 284 283 283 283 282 282 282 282 281 281
288 291 290 288 284 283 286 282 286 289 291 293 294 296 296 298 297 296 292 290 290 291 291 292 292 291 292 291 289 287 289 286 286 286 284 283 285 284 284 284 283 282 282 282 282 283 282 281 280
290 289 288 285 283 282 282 281 285 288 287 291 295 295 297 298 293 293 292 293 291 289 290 290 290 291 290 290 290 288 288 288 283 283 283 283 283 284 283 283 282 282 282 282 282 281 281 281 280
289 287 286 283 282 279 283 282 284 284 288 289 293 295 296 298 294 293 292 291 288 287 288 289 289 289 288 289 288 288 288 284 284 283 283 283 283 283 282 282 281 281 281 281 281 281 281 281 280
288 285 278 275 274 277 284 280 288 289 292 291 294 295 296 297 291 290 290 290 288 287 287 288 288 288 288 288 288 287 287 285 285 284 284 283 282 282 282 281 280 280 280 281 281 280 279 279 279
285 286 281 273 276 282 279 279 286 291 293 293 293 294 294 292 292 292 290 291 289 288 287 288 288 288 288 288 288 288 287 285 286 284 284 284 283 283 282 281 280 280 280 280 279 279 278 278 279
283 282 288 281 269 273 283 285 290 289 291 291 291 292 292 291 291 291 289 289 288 287 288 288 287 288 288 288 288 287 287 285 285 284 284 284 283 281 280 280 280 279 279 279 278 278 278 278 278
287 288 281 280 275 272 280 279 285 288 289 289 290 292 292 290 289 289 288 288 287 288 288 288 288 288 287 287 287 286 286 285 285 282 282 282 281 281 279 279 279 278 278 278 277 277 277 277 277
283 284 284 284 283 280 279 282 287 287 286 288 291 293 289 290 291 290 290 289 288 287 287 287 287 286 285 286 286 285 284 284 283 282 281 280 280 280 280 279 278 277 277 277 276 276 276 275 275
286 287 288 283 280 280 281 282 295 295 294 294 293 294 291 290 291 291 291 290 288 287 286 287 288 287 287 286 285 285 284 283 282 282 281 280 280 279 279 278 277 277 276 276 275 274 275 273 273

GFSSGP_sfc_thetae_009.txt.gz
Theta_e
319 315 314 309 297 293 289 292 293 294 293 296 299 298 298 298 299 294 311 322 326 331 334 340 346 349 349 350 349 349 348 348 348 346 345 344 343 343 341 341 341 342 342 342 340 338 336 337 338
313 315 310 301 293 286 288 293 293 295 296 297 297 297 297 298 304 307 313 321 327 330 332 334 343 347 347 349 349 349 349 347 345 343 341 339 341 341 338 336 336 336 337 339 335 332 330 330 331
313 311 305 297 290 288 289 292 294 295 295 295 295 297 297 299 302 307 314 322 325 326 329 332 341 343 343 343 343 342 342 343 342 338 337 339 337 334 332 330 328 330 331 329 327 326 324 324 324
308 304 298 294 291 294 293 294 294 294 295 296 295 296 297 303 305 308 311 322 321 321 325 332 339 341 342 341 341 340 339 339 339 336 336 335 332 329 326 325 324 325 324 324 323 322 321 321 321
303 299 291 289 289 292 293 294 295 295 293 295 296 294 296 300 303 308 316 321 319 318 321 327 338 338 339 339 339 337 337 337 336 335 333 330 326 324 324 323 322 322 322 321 321 320 320 320 320
298 296 289 287 289 293 295 295 296 294 293 293 293 296 296 298 304 307 313 315 317 317 319 323 331 335 337 337 337 336 336 335 332 330 327 325 323 322 321 320 320 320 320 320 319 319 318 318 317
297 294 289 287 291 292 295 295 293 293 293 295 295 293 295 296 302 308 310 311 313 315 316 318 322 326 330 334 334 335 334 330 327 325 323 321 320 319 318 317 318 319 319 318 318 315 315 314 314
298 294 289 288 289 292 294 293 294 295 296 295 298 295 295 296 301 304 307 309 309 311 312 313 315 317 318 320 327 328 330 327 325 322 321 320 316 315 316 316 318 317 317 316 314 312 311 311 311
298 289 286 289 290 293 293 293 295 294 295 295 298 295 296 297 298 300 300 303 306 308 309 309 310 311 311 312 316 322 324 323 322 319 318 313 302 303 305 312 316 314 313 313 311 308 306 305 305
296 287 289 292 293 293 294 294 294 295 293 293 295 296 296 296 297 299 297 302 304 306 306 307 306 306 306 309 310 310 311 309 307 305 304 298 297 298 302 308 311 309 309 309 307 305 302 297 293
296 292 294 297 298 296 295 293 295 292 293 294 296 297 295 294 295 297 299 303 305 307 306 305 306 304 303 304 304 303 302 300 299 298 298 295 296 298 296 295 293 292 296 291 293 292 291 291 291
293 297 296 298 299 296 295 295 294 294 300 298 298 297 295 294 294 295 296 297 297 301 305 304 304 303 300 299 302 300 299 296 296 295 296 294 294 292 292 291 290 289 289 288 289 289 290 290 291
295 296 299 299 298 297 297 296 295 295 300 297 297 296 295 295 296 297 297 297 295 296 302 302 302 302 300 297 299 297 296 297 295 294 295 294 292 291 291 290 289 288 288 288 287 288 288 288 289
295 296 297 296 297 297 296 298 295 298 297 298 296 296 295 295 296 295 294 296 294 295 296 299 301 301 299 297 297 298 296 295 294 292 293 293 292 290 290 289 288 287 287 287 287 287 287 287 288
295 293 293 294 294 295 295 292 291 299 295 297 295 296 296 295 295 296 298 297 297 296 295 296 299 299 298 296 296 295 295 295 294 292 292 292 291 289 288 288 287 286 286 287 286 286 286 285 287
289 289 286 291 292 293 293 288 297 297 295 296 296 295 295 296 297 298 299 298 297 296 294 295 298 297 297 296 295 295 294 294 293 291 290 291 290 289 288 287 286 286 286 285 285 285 284 284 284
285 283 284 288 294 292 292 289 295 295 293 294 294 294 295 296 296 296 299 298 297 296 296 294 295 296 296 296 295 294 293 293 293 289 289 289 289 288 288 286 286 286 285 285 285 284 283 283 284
283 281 284 284 290 289 288 289 294 297 293 294 295 295 297 298 299 301 297 298 297 295 296 295 295 295 295 294 292 291 291 290 290 290 288 288 288 288 286 285 285 285 284 284 284 283 284 283 283
285 284 284 287 292 288 289 290 293 296 296 296 293 296 298 298 301 302 296 295 295 293 294 294 293 294 294 292 290 291 291 290 289 288 288 288 287 287 285 285 284 284 284 283 283 283 282 283 282
287 287 286 290 292 287 289 289 291 293 294 296 297 297 298 298 299 300 294 293 293 294 294 294 293 292 294 294 294 291 292 287 289 288 287 287 286 286 285 284 284 283 283 283 283 283 282 282 282
287 285 287 287 288 287 286 287 289 290 291 295 296 298 298 297 298 299 293 292 291 291 292 293 293 292 294 293 290 285 284 283 283 284 286 286 286 285 285 284 284 283 283 282 282 282 282 281 281
286 289 289 287 283 282 285 281 284 290 291 292 294 295 295 296 297 297 294 291 291 292 291 292 292 291 293 292 290 288 289 288 288 289 287 285 285 284 284 284 283 283 282 281 281 282 281 281 280
288 289 287 284 281 281 281 279 283 287 287 290 292 293 295 296 296 296 292 292 292 289 289 290 290 291 292 291 291 289 290 290 284 283 283 284 283 284 283 283 282 282 281 281 282 281 281 280 280
289 286 284 282 281 277 282 282 283 284 287 288 290 293 294 294 296 292 292 291 289 286 287 288 289 290 290 290 290 289 290 286 285 283 284 284 283 283 283 283 282 281 281 281 281 281 281 280 280
286 283 277 275 273 277 282 279 288 290 292 290 293 292 293 293 292 295 291 290 287 285 286 287 288 288 288 289 289 288 289 287 286 284 285 283 282 282 282 282 281 281 281 281 281 280 280 280 279
284 284 278 271 275 281 279 278 288 291 291 289 291 291 291 291 292 290 291 289 287 286 286 287 287 288 287 288 288 288 288 287 286 285 285 284 284 284 283 282 281 280 281 280 280 280 279 279 279
283 281 286 280 273 274 282 284 290 289 289 288 289 289 291 293 292 290 290 288 287 285 285 286 287 288 287 288 288 287 287 285 286 284 284 284 284 283 281 282 281 280 280 280 279 279 278 278 279
286 287 280 279 273 274 279 282 284 288 292 291 290 291 292 292 290 290 289 288 287 286 286 286 286 287 287 287 287 287 286 286 286 283 283 283 283 282 281 281 281 280 280 279 279 278 278 278 278
282 282 283 283 282 279 278 281 293 290 288 288 290 291 292 292 292 291 291 290 289 287 286 287 286 285 285 285 286 286 286 285 285 283 283 283 282 281 281 281 280 280 279 279 278 277 277 277 276
286 285 285 280 280 282 283 283 295 295 294 293 293 296 294 291 293 292 291 291 290 289 287 287 287 286 287 286 286 286 285 284 284 283 283 283 282 281 281 281 280 280 279 278 278 276 277 276 275

GFSSGP_sfc_thetae_012.txt.gz
Theta_e
318 314 312 307 296 292 288 291 292 292 294 298 297 296 297 297 298 293 309 320 323 327 333 340 347 349 350 350 349 348 348 349 349 348 347 346 346 344 343 342 343 343 344 342 339 336 336 336 336
311 313 308 300 292 285 286 292 293 294 294 296 296 296 297 297 302 306 311 322 326 329 333 336 345 349 350 350 350 349 350 348 347 345 342 342 343 341 339 338 337 338 338 337 333 331 330 330 330
311 309 304 295 288 285 288 291 292 293 294 294 297 300 299 298 302 306 314 321 325 328 331 334 343 348 348 349 349 349 349 347 345 343 341 338 338 336 334 333 333 335 333 330 329 326 325 324 325
307 303 298 293 290 293 292 294 292 293 296 295 295 294 296 300 304 307 313 322 323 324 328 335 342 344 344 344 344 344 343 344 341 337 337 338 335 334 330 328 328 328 327 326 325 323 322 322 321
302 297 290 287 288 291 293 295 293 294 293 293 296 295 295 298 302 307 315 321 321 320 323 329 340 343 341 342 342 341 341 342 338 336 336 335 332 329 327 325 325 324 323 323 321 322 322 321 319
297 295 289 285 287 292 294 294 293 292 292 292 295 294 296 297 301 305 315 317 318 318 320 325 333 338 338 341 342 341 340 340 337 336 334 331 327 325 323 322 322 322 322 321 321 320 319 318 317
296 293 288 286 288 292 294 293 291 292 293 295 296 295 296 296 301 308 312 312 314 316 318 320 325 329 333 336 337 337 338 336 335 333 330 326 324 323 321 320 321 321 321 320 317 317 316 316 314
297 294 287 286 287 290 294 292 293 293 295 294 296 294 295 298 302 306 308 309 311 313 315 316 318 321 322 324 331 332 334 334 332 329 326 324 322 322 320 321 321 320 320 317 315 313 313 312 311
296 289 285 288 288 291 293 292 296 296 294 293 297 295 296 296 302 304 302 304 306 310 311 312 314 315 316 317 320 326 328 328 326 323 320 313 304 306 307 312 320 318 317 314 312 310 308 307 307
295 287 288 291 291 292 293 293 294 296 293 293 294 296 295 296 299 302 302 305 305 307 309 310 310 311 311 314 313 314 316 314 311 309 306 301 299 300 304 310 316 315 314 311 310 307 304 297 292
294 292 292 295 295 295 294 293 294 292 293 294 295 297 295 295 296 301 303 306 308 310 309 309 309 308 308 308 308 307 307 305 304 303 299 297 296 299 299 298 296 295 299 293 294 291 290 290 290
293 296 296 297 297 295 295 295 293 294 300 298 298 297 294 294 295 298 300 302 303 305 308 308 307 306 305 305 306 305 304 301 300 298 296 293 293 294 294 291 290 289 289 288 288 289 289 289 289
293 295 297 298 297 297 296 296 295 294 299 298 297 296 295 294 295 297 299 300 300 301 306 306 306 307 305 302 303 302 302 301 298 296 295 293 293 291 291 289 288 287 287 287 287 287 287 287 288
293 294 295 295 296 296 295 297 296 296 296 297 295 295 295 294 295 294 294 296 295 299 302 305 304 306 305 303 302 303 302 298 296 294 295 292 293 291 290 289 287 286 287 286 286 286 286 286 287
294 292 292 292 292 293 294 292 291 298 293 296 295 294 294 295 294 295 298 297 297 297 297 301 304 305 303 303 301 302 300 297 295 294 292 292 292 290 289 288 286 286 286 286 286 285 285 285 286
288 288 285 289 291 291 292 286 295 295 291 294 294 294 294 295 295 296 298 298 298 298 295 297 302 303 303 302 300 299 297 297 296 293 293 292 291 290 288 287 286 286 285 285 284 284 283 284 284
284 282 283 287 292 291 290 287 294 292 292 293 294 295 295 298 298 296 297 298 297 297 297 295 297 300 301 301 298 297 295 295 295 292 292 291 291 289 289 287 286 285 284 284 284 283 283 282 283
283 281 283 283 289 287 287 288 292 295 293 292 295 297 298 298 299 302 298 296 296 296 297 296 295 297 298 299 295 292 291 293 291 291 291 290 291 289 287 286 285 285 284 283 283 283 283 283 282
283 283 283 285 290 286 290 290 291 293 293 295 296 296 296 297 300 301 297 295 294 292 293 294 293 295 296 295 292 291 292 291 290 291 290 290 289 288 287 286 285 284 284 283 282 282 282 282 282
286 285 286 289 291 286 287 288 292 293 294 295 295 296 297 297 298 298 295 293 292 293 293 293 293 293 295 295 295 292 294 290 292 290 288 289 288 287 287 286 285 284 283 282 282 283 281 281 281
285 283 286 285 286 286 284 285 286 290 291 294 295 296 295 296 296 297 294 292 292 291 290 292 293 293 294 294 292 285 285 284 284 285 286 286 287 287 287 285 285 284 283 283 282 282 282 281 280
285 288 288 286 283 279 284 280 284 288 289 289 292 291 292 294 293 293 293 291 292 293 291 291 292 291 293 293 291 290 290 289 290 291 290 288 287 286 285 285 285 284 283 282 282 282 281 281 280
287 287 286 283 281 280 279 278 283 285 286 289 290 292 292 291 291 292 293 292 291 291 289 289 290 290 292 292 291 291 291 292 287 286 287 286 285 285 285 285 284 283 283 282 282 281 281 281 280
288 285 283 281 280 276 281 280 282 283 286 287 291 291 293 292 293 293 292 290 290 287 286 287 288 289 290 291 291 291 291 285 286 284 286 285 284 284 283 284 283 283 282 281 282 281 281 280 280
285 282 276 274 273 276 280 278 285 288 290 290 291 291 292 291 291 290 292 291 290 286 285 286 286 287 287 289 290 290 290 286 287 285 286 284 284 284 283 283 282 282 282 282 281 281 280 280 280
283 283 278 273 273 281 277 278 287 289 290 291 290 290 289 289 290 290 291 289 288 286 285 285 286 286 286 287 287 287 288 287 287 286 286 285 285 285 284 283 282 282 281 281 281 281 280 280 280
282 281 285 281 277 275 283 284 290 290 288 287 288 289 290 290 291 290 291 289 287 286 285 285 285 286 285 286 286 285 286 286 286 283 284 285 285 285 282 283 282 281 281 281 281 281 280 280 279
285 286 280 279 275 272 278 280 283 289 290 291 291 291 290 293 297 294 291 290 288 287 285 285 285 286 285 285 286 287 287 286 285 284 284 284 284 283 282 282 282 281 281 281 280 280 279 279 278
284 283 282 283 282 278 277 281 291 291 291 288 288 290 293 296 293 290 290 291 290 288 286 285 284 284 284 284 285 285 284 284 284 284 284 284 283 283 281 282 282 281 280 280 280 280 279 279 278
286 288 286 281 279 279 281 281 293 293 294 295 291 290 287 288 288 289 289 289 289 290 291 290 287 285 285 285 284 284 284 283 283 283 284 283 282 282 282 282 281 281 281 280 280 279 279 278 277

GFSSGP_sfc_thetae_018.txt.gz
Theta_e
325 324 327 323 306 305 300 301 305 304 304 307 307 307 307 308 305 302 321 329 331 332 343 349 350 352 352 351 350 348 348 349 350 350 349 348 347 346 346 346 346 346 344 342 340 338 338 337 337
322 321 324 317 302 297 299 303 303 305 306 307 307 307 307 306 312 315 321 328 331 333 343 347 347 351 352 351 350 348 347 348 349 349 348 348 346 345 343 342 342 342 341 339 335 334 333 332 330
319 318 314 308 303 297 299 303 304 305 306 307 307 309 309 308 312 317 323 329 332 333 341 345 346 350 351 351 350 349 348 349 350 348 347 346 344 340 339 337 337 339 337 334 331 329 328 326 326
319 317 312 302 299 302 302 305 306 307 305 306 307 305 309 313 314 318 323 331 332 333 337 342 346 349 350 351 350 349 348 349 348 347 344 340 339 337 333 334 337 335 333 330 327 325 325 323 322
318 313 303 300 299 302 304 305 305 304 305 306 306 305 307 311 314 317 325 330 333 333 337 341 344 348 349 350 350 350 350 349 349 346 339 340 339 336 333 331 332 330 328 326 325 325 322 321 319
310 310 299 297 298 302 304 306 305 304 305 305 304 306 308 311 312 316 324 330 333 333 338 340 339 343 345 348 349 349 349 349 345 342 336 340 337 334 332 329 329 327 325 324 324 323 320 319 317
306 304 299 299 299 301 304 304 304 305 305 306 307 304 310 311 312 316 322 329 333 335 336 339 341 341 337 340 341 343 344 343 342 341 339 338 336 333 329 327 326 325 324 324 322 321 319 317 315
311 307 299 300 299 298 304 303 305 305 305 306 308 305 306 311 312 318 323 327 330 333 335 337 340 340 341 342 334 336 339 339 339 337 335 332 331 330 328 326 326 324 324 321 320 319 317 315 312
308 302 298 298 298 300 304 303 304 306 305 305 307 309 312 309 313 316 320 323 326 328 332 335 336 338 338 338 335 332 333 333 333 333 328 325 330 326 323 322 326 324 322 319 318 316 314 311 308
306 301 300 303 303 302 304 303 305 304 306 306 306 310 310 308 311 313 315 318 322 324 327 331 333 334 336 335 337 338 338 338 336 335 329 330 327 324 321 319 322 324 321 317 316 313 308 302 304
306 301 304 303 303 303 303 303 305 304 303 307 306 309 311 308 309 310 313 316 319 323 325 327 329 331 333 333 334 335 337 337 334 332 330 328 323 320 319 319 320 320 315 314 311 307 303 303 303
301 305 304 305 304 303 302 305 303 304 306 309 310 310 309 309 309 309 311 313 316 319 323 325 326 328 330 332 331 332 333 334 331 330 327 322 320 318 316 317 318 317 314 311 307 303 303 302 300
301 303 304 305 304 304 305 303 303 304 308 309 309 308 307 308 308 310 311 312 315 316 319 322 325 325 327 329 329 329 330 330 329 327 323 320 318 315 313 315 315 314 310 306 302 302 301 300 299
302 302 302 303 303 303 300 302 301 304 307 306 306 306 307 307 307 308 309 308 310 313 316 319 321 323 325 326 327 327 327 328 328 325 321 318 316 313 311 312 311 309 306 303 302 301 300 300 299
301 298 301 301 301 300 301 298 298 305 305 303 305 306 306 307 307 307 309 310 310 311 313 315 318 321 322 323 325 325 325 325 325 322 320 316 313 310 308 309 307 305 302 301 300 299 299 298 298
297 297 294 300 298 299 300 294 302 305 302 302 304 305 306 307 308 309 309 309 310 310 310 312 314 317 319 321 323 323 323 322 321 321 318 314 311 308 307 306 304 302 300 299 299 298 297 298 297
296 292 293 295 299 297 298 295 301 303 302 301 303 304 305 306 307 308 309 309 309 310 309 309 311 313 316 319 320 321 321 320 319 319 317 314 310 307 305 305 303 300 299 298 298 297 297 297 296
293 292 293 292 298 297 295 295 298 300 300 299 301 302 304 305 306 307 307 308 309 309 309 309 309 310 313 315 317 318 318 318 318 317 315 312 309 306 304 303 302 299 298 297 297 296 296 297 296
295 293 292 295 298 295 294 295 297 300 300 300 300 302 303 304 306 306 306 307 306 307 306 306 306 306 309 311 312 313 313 314 314 315 313 311 309 305 304 303 301 298 297 297 297 296 295 294 295
294 292 292 295 297 293 294 293 297 299 299 301 301 302 302 303 304 305 304 304 303 304 304 304 304 305 306 309 311 311 311 311 312 312 311 310 308 305 303 302 300 298 297 297 296 296 294 295 295
293 291 292 292 295 295 292 293 294 299 300 301 300 301 301 301 301 302 301 301 301 300 300 300 301 303 303 306 308 308 306 307 306 307 307 306 306 304 302 301 300 298 298 297 297 296 295 294 293
290 296 293 291 289 287 292 286 294 298 298 299 300 300 301 301 301 299 298 298 297 297 299 299 300 300 301 303 304 304 302 301 302 303 304 304 303 303 302 301 300 299 298 297 297 296 297 297 293
292 293 291 290 289 288 290 286 294 294 293 297 299 299 299 300 298 296 296 296 296 296 297 298 298 298 299 300 302 301 301 303 303 301 302 301 301 301 300 300 299 298 297 298 297 295 296 296 297
293 292 291 289 289 284 291 289 291 294 294 296 298 296 296 296 296 296 296 296 295 297 296 296 296 296 297 298 299 299 299 300 300 299 299 299 299 298 299 298 298 297 297 296 296 295 295 295 296
291 289 286 286 286 285 288 287 290 296 295 295 293 293 294 295 294 294 293 293 294 294 294 294 294 293 295 296 296 297 297 298 298 298 298 298 297 296 296 297 296 296 296 296 296 294 294 294 294
290 291 288 280 282 286 290 285 292 299 295 295 294 293 293 293 293 293 293 293 293 293 294 294 293 293 293 293 293 294 295 296 297 297 297 297 297 297 297 295 295 295 295 295 294 293 293 293 293
289 286 292 287 287 283 287 291 296 297 293 293 293 293 291 291 291 291 292 292 292 292 292 293 292 292 292 293 293 293 293 293 294 295 295 296 296 296 296 295 294 294 294 293 293 292 291 292 292
290 294 286 285 278 278 283 286 288 290 290 291 291 289 289 289 290 291 291 290 291 291 292 292 292 291 291 291 292 292 292 292 292 293 292 293 294 294 293 294 293 293 293 292 291 291 291 291 291
289 286 286 286 285 280 279 284 293 290 290 289 287 286 286 287 288 289 290 290 290 290 290 290 290 290 289 289 291 291 292 292 291 291 291 291 292 292 292 292 291 291 291 291 290 290 290 289 289
291 290 290 283 282 285 284 284 292 290 289 287 285 285 286 286 286 288 290 289 287 287 288 289 288 288 288 288 289 289 290 289 289 290 290 291 290 291 290 290 289 289 290 290 289 289 288 288 287

GFSSGP_sfc_thetae_021.txt.gz
Theta_e
326 326 326 322 308 305 301 302 307 306 306 310 310 308 307 309 306 303 324 329 331 335 343 348 351 353 352 351 351 349 349 349 349 351 350 349 348 347 348 348 347 346 344 342 340 339 339 339 336
323 322 323 314 303 299 299 305 304 306 309 310 310 309 308 306 313 315 321 330 331 334 343 347 348 352 352 351 351 349 348 349 350 350 349 348 346 346 345 344 345 343 341 339 337 335 333 332 330
322 320 313 308 303 299 300 305 306 308 310 309 308 311 310 309 314 318 326 331 331 333 343 346 348 351 352 352 351 349 348 349 350 349 348 347 346 343 340 339 338 339 338 335 332 330 329 327 326
319 317 313 302 300 303 303 306 308 308 309 309 309 307 312 315 316 321 326 332 331 332 340 345 347 351 352 351 350 349 348 348 350 349 347 346 341 338 335 334 338 337 335 331 329 327 326 324 321
318 313 304 301 301 303 306 307 308 307 308 308 309 307 309 314 317 320 326 331 331 331 337 344 345 348 350 351 351 349 349 349 350 349 347 343 341 338 333 333 334 333 331 328 326 325 322 321 319
310 310 301 299 300 304 306 309 308 307 308 308 307 308 309 316 315 318 324 330 333 332 334 337 339 343 346 349 349 349 349 350 349 347 342 341 340 337 333 331 332 330 327 325 326 322 321 319 317
308 305 301 301 301 302 305 308 307 307 306 307 310 305 310 314 316 318 322 328 332 334 334 337 340 341 338 343 344 346 348 348 347 342 340 340 338 335 333 330 329 327 325 325 324 321 320 318 315
311 307 301 302 300 300 306 307 309 307 306 310 311 305 307 315 316 319 323 326 330 333 334 336 338 340 342 344 336 339 342 342 341 338 335 334 333 333 331 328 328 325 324 323 322 320 318 315 312
312 302 299 301 300 302 306 304 308 310 307 309 310 310 313 314 315 318 321 323 327 330 333 335 337 338 339 340 339 333 334 335 335 333 330 327 332 331 327 324 327 326 325 322 320 319 316 312 308
307 303 302 306 305 303 305 305 306 306 306 307 309 313 314 314 313 314 316 318 322 326 330 333 335 337 338 336 338 341 340 340 339 337 335 334 332 330 324 321 323 326 323 321 319 316 312 308 306
307 302 305 306 307 307 305 304 307 304 303 306 307 309 312 313 313 312 313 315 318 323 327 329 333 335 337 337 337 337 337 337 340 339 337 334 331 328 323 322 321 323 317 316 315 310 305 306 306
303 306 306 307 307 305 304 306 304 305 306 309 310 311 311 310 311 311 312 313 315 318 322 327 329 332 334 336 335 336 336 336 337 337 336 333 330 325 322 320 321 323 318 316 314 308 308 305 303
303 304 306 307 307 306 306 304 304 304 308 310 310 310 309 310 310 312 313 314 315 315 319 324 329 329 331 333 334 333 334 335 336 335 334 331 327 323 320 318 320 320 317 314 310 307 305 304 302
305 304 304 305 304 305 302 303 304 305 308 308 308 308 309 309 310 311 311 312 313 314 318 321 324 328 328 330 332 332 333 333 333 333 331 330 326 322 318 317 318 317 315 311 307 305 304 304 303
303 299 302 303 304 303 303 299 300 306 308 306 306 307 308 309 310 310 311 312 312 314 315 318 321 325 326 328 330 331 331 330 331 331 330 327 325 320 316 315 315 314 312 308 305 304 304 302 301
299 300 295 302 301 302 301 295 302 306 304 303 305 306 307 308 309 310 311 311 312 313 313 315 316 320 324 325 327 328 329 329 329 330 328 325 323 318 315 312 312 312 307 304 303 302 301 301 300
299 293 296 298 303 300 299 296 302 305 304 303 304 304 305 306 309 310 310 310 311 311 311 312 314 316 319 323 325 326 327 327 327 327 326 324 320 317 312 310 310 309 304 302 301 300 300 299 299
295 296 297 296 301 301 299 298 301 304 303 303 304 305 306 306 307 307 307 308 308 309 310 311 311 312 314 318 321 323 324 325 325 324 323 322 319 315 311 309 308 305 302 301 301 300 300 300 299
298 296 295 298 301 299 297 297 299 302 302 302 304 305 306 305 306 306 305 305 305 305 305 306 307 309 310 313 315 317 318 320 321 322 321 320 317 314 311 307 306 303 301 300 300 300 299 299 298
296 294 294 298 300 298 296 295 298 300 302 304 304 304 304 304 303 302 302 301 301 301 302 303 304 306 307 309 313 314 315 317 318 319 319 318 316 313 309 307 304 302 300 300 300 299 297 298 297
296 294 294 294 297 297 295 294 299 301 305 305 304 303 302 301 299 299 299 299 299 299 300 301 302 303 305 306 309 310 311 309 310 312 314 314 314 312 309 306 304 302 300 299 299 299 297 295 296
291 298 295 293 291 289 295 286 295 300 301 301 301 300 300 299 299 299 298 298 298 298 300 300 300 301 302 304 305 305 305 303 306 306 309 310 311 310 309 306 305 302 300 299 299 298 298 297 293
294 295 293 293 291 292 293 289 294 300 297 297 297 298 298 298 297 297 297 297 297 298 298 299 298 298 300 301 302 302 302 303 305 304 304 306 307 306 307 306 304 302 300 299 298 297 297 297 296
296 293 293 294 292 286 293 291 292 295 295 296 296 297 297 297 297 296 297 297 296 298 297 297 297 296 298 298 299 299 299 300 300 302 301 303 303 303 303 304 303 302 300 299 298 297 296 296 297
293 291 286 285 287 286 293 290 293 298 297 297 295 295 296 296 295 295 294 294 294 294 296 295 295 295 296 297 296 296 296 297 298 299 299 300 301 301 300 301 301 300 300 299 298 297 296 296 295
294 293 287 280 282 287 293 288 293 299 296 297 296 295 295 294 294 294 293 293 293 293 293 294 293 292 293 294 295 295 295 295 296 296 297 298 298 300 301 299 299 299 299 298 297 296 296 295 295
293 289 294 287 287 284 288 293 299 299 295 295 294 294 292 293 293 293 293 292 292 292 292 292 292 292 291 292 293 294 294 294 293 294 295 296 296 297 297 298 297 297 297 296 296 295 294 294 294
292 293 287 288 279 278 285 287 289 294 294 293 292 290 290 291 292 292 292 291 291 292 292 291 291 289 289 290 291 291 291 292 293 293 293 293 293 294 294 295 295 295 295 294 294 293 293 292 292
290 288 289 289 287 280 279 284 293 292 293 291 288 288 288 288 288 290 291 290 289 289 289 289 289 288 288 288 289 290 290 290 289 289 290 291 291 292 291 292 292 292 292 293 293 292 291 291 291
294 290 290 284 282 285 283 284 295 292 290 289 287 287 288 288 287 287 289 289 287 287 287 287 287 287 287 287 288 288 287 288 287 287 287 289 289 290 290 290 289 290 290 291 290 290 289 289 289

GFSSGP_sfc_thetae_027.txt.gz
Theta_e
323 316 314 309 298 295 291 294 296 298 298 299 302 299 298 299 299 295 315 322 332 339 344 348 351 353 353 353 352 352 352 350 349 349 349 348 349 349 350 348 348 346 344 343 341 340 339 337 335
314 317 311 303 293 288 289 294 297 299 301 301 300 300 298 298 306 312 315 324 332 339 343 347 348 352 353 352 352 351 352 352 350 349 349 349 349 349 348 348 346 344 342 341 340 339 335 333 331
316 315 303 297 291 288 290 294 294 299 300 299 298 301 299 301 306 313 319 325 328 338 342 346 348 352 352 351 351 351 351 352 352 351 350 349 348 348 345 344 344 343 340 338 336 335 331 329 326
310 307 301 292 290 292 292 293 298 298 299 300 299 296 301 305 308 316 323 325 323 337 341 344 348 352 352 351 351 350 351 351 352 352 350 348 347 344 342 341 342 340 338 335 333 331 328 324 322
307 301 293 291 291 294 295 298 299 298 298 299 299 296 299 307 314 319 322 324 321 328 339 344 347 350 351 351 351 350 350 351 352 352 351 349 345 340 337 336 338 339 335 333 331 328 324 321 319
300 297 290 288 291 294 296 299 298 297 298 298 297 296 298 306 307 313 321 322 322 325 339 343 341 344 347 349 349 349 349 349 350 351 350 349 344 339 336 335 335 335 333 330 329 325 322 320 317
300 294 290 291 292 294 297 298 295 295 296 296 298 294 299 302 307 311 317 320 323 324 336 340 342 342 340 343 344 346 347 347 348 348 348 344 342 340 336 335 334 334 331 329 326 323 321 318 315
300 295 292 291 291 292 297 297 299 296 297 300 300 294 297 304 309 311 313 315 319 322 326 335 338 340 340 341 337 340 342 343 344 343 340 336 336 335 334 331 334 332 329 328 325 322 320 317 313
302 291 289 291 293 293 298 296 299 300 297 298 301 300 302 305 309 308 310 312 314 320 323 325 333 335 337 336 336 333 336 338 338 336 332 330 328 328 326 325 330 330 328 327 324 321 319 314 309
297 291 293 296 294 294 297 295 295 296 296 296 299 301 302 307 305 306 307 309 311 314 320 324 326 332 334 340 337 335 336 337 337 334 332 330 325 324 324 321 325 328 327 326 323 321 317 308 298
299 293 297 300 300 299 298 298 298 295 293 297 297 299 301 302 302 303 304 306 310 313 317 323 326 327 330 333 332 335 338 335 332 332 329 327 324 322 319 316 318 317 318 315 316 312 305 302 299
295 300 300 301 301 299 297 299 299 298 300 301 301 301 300 301 301 300 302 303 303 307 316 320 324 326 327 331 329 334 335 334 333 332 329 328 326 322 314 313 312 312 310 308 306 304 301 298 296
295 297 300 301 300 299 299 297 297 298 302 302 302 302 300 300 300 300 302 302 302 304 307 317 322 325 328 326 326 330 332 332 330 332 331 330 326 322 315 311 311 310 308 306 304 301 297 296 295
296 297 297 298 299 298 297 295 296 298 299 299 299 299 298 299 299 298 299 300 300 302 304 309 321 324 325 327 325 324 325 327 326 325 328 330 326 321 315 310 311 310 308 305 302 298 296 295 294
297 293 295 296 296 296 297 293 295 299 297 298 298 296 299 298 299 297 299 299 299 300 302 305 315 319 322 323 324 323 323 324 324 326 324 324 324 319 313 310 309 310 307 304 299 296 295 294 294
293 290 287 295 296 296 294 288 296 298 296 297 298 295 297 297 297 297 298 298 298 298 299 301 305 317 319 320 320 323 322 321 321 322 322 321 322 318 311 308 307 307 305 301 296 295 293 292 292
289 285 287 292 297 295 292 288 296 299 297 296 296 295 296 295 295 296 296 296 297 297 298 299 300 302 314 316 317 319 320 319 319 320 321 322 320 316 312 307 306 305 301 297 296 292 292 290 290
285 285 289 288 294 293 290 290 294 296 297 297 295 292 293 293 294 296 295 296 296 296 297 298 299 300 306 309 311 313 314 315 316 317 321 321 320 315 310 307 305 303 299 295 293 292 291 290 290
289 288 287 290 295 291 291 290 293 296 295 295 292 292 292 293 295 295 295 294 295 294 295 296 297 298 300 301 305 306 308 311 312 316 319 319 318 315 309 306 305 300 298 296 293 291 291 290 289
290 287 287 290 294 291 290 289 293 295 294 294 293 291 292 292 292 293 293 293 293 293 293 294 295 296 298 300 300 303 302 302 306 310 311 315 315 314 309 304 302 298 295 293 292 291 289 290 289
288 287 287 288 290 290 287 287 290 294 293 293 293 293 293 291 291 291 292 291 292 291 292 293 294 294 295 297 299 299 300 299 298 301 304 308 311 310 309 305 302 299 298 295 293 291 291 289 289
287 291 291 289 285 281 287 279 287 291 290 291 291 290 290 290 291 291 290 290 290 290 291 292 293 293 294 294 294 293 293 293 294 295 296 299 303 304 307 305 303 299 297 295 292 292 291 289 287
289 290 288 287 284 282 283 280 285 288 287 288 288 289 289 289 289 289 289 290 290 289 288 289 290 291 292 292 292 291 291 292 292 293 293 294 297 299 300 301 302 300 298 295 293 292 291 289 289
291 288 287 285 283 278 283 283 283 286 288 288 289 289 289 288 288 288 289 289 288 288 287 288 288 289 290 291 290 290 289 289 289 289 290 291 292 294 296 297 297 297 298 295 294 293 292 292 290
288 284 279 276 275 277 285 282 285 289 290 290 288 287 287 287 286 287 286 286 287 286 286 287 286 286 288 288 288 288 288 288 288 288 288 288 288 289 290 291 292 293 294 294 292 291 291 290 291
287 287 279 271 274 276 284 279 285 288 289 289 289 288 288 287 287 286 286 286 286 285 285 285 285 284 286 286 286 286 286 286 286 286 287 287 287 288 289 288 288 289 291 292 291 289 288 288 288
287 284 288 282 273 274 280 285 288 288 287 287 286 286 286 287 286 286 286 286 286 285 285 284 283 283 284 284 285 284 285 285 285 285 285 285 286 287 287 287 287 287 287 288 289 287 286 286 287
288 289 282 281 270 269 278 279 281 285 284 285 285 284 285 285 287 287 285 286 285 285 284 284 284 283 283 284 284 284 284 284 283 283 283 283 284 285 285 285 285 285 286 286 286 285 285 285 285
285 284 285 285 282 274 272 277 287 287 285 283 284 284 284 284 285 286 284 284 284 284 284 285 285 284 283 283 283 283 283 283 282 282 282 281 282 283 283 283 283 283 283 284 284 284 284 284 285
288 286 286 279 277 278 280 280 289 287 286 285 285 286 285 285 283 284 285 283 283 283 283 282 282 283 283 283 283 284 284 283 282 280 281 280 280 281 282 282 281 281 281 282 282 282 283 283 283

GFSSGP_sfc_thetae_030.txt.gz
Theta_e
318 311 312 308 297 293 289 292 294 296 295 298 300 298 296 297 297 293 313 322 333 338 345 348 351 354 354 354 353 352 351 349 349 348 348 348 349 350 350 349 347 345 344 343 342 341 339 336 335
313 315 308 300 292 287 288 293 295 297 299 299 299 298 297 296 305 310 314 321 336 339 344 347 348 353 354 353 352 352 352 351 349 348 348 348 348 349 348 348 346 344 342 341 339 339 335 333 331
313 311 301 295 289 287 289 292 293 297 298 298 296 299 298 300 306 311 316 323 336 338 343 346 347 352 353 352 351 351 352 352 351 349 349 349 349 348 347 346 344 342 341 338 337 334 331 328 327
308 305 299 291 289 291 292 294 296 296 298 298 297 298 299 304 306 314 321 324 334 337 341 344 348 352 353 351 351 351 352 352 351 352 350 349 347 346 344 344 343 340 338 336 334 331 328 324 322
304 298 291 289 289 292 294 296 297 296 296 297 297 296 296 306 313 317 320 321 332 334 338 343 347 350 351 351 351 351 350 351 352 352 351 349 347 344 341 341 341 340 337 333 332 328 324 320 318
299 295 289 287 290 292 295 296 296 294 294 296 295 298 296 305 307 315 320 319 323 333 336 342 341 344 347 349 349 349 349 350 351 350 349 349 345 341 339 337 337 336 334 332 330 325 322 319 315
297 292 288 289 289 292 296 296 294 293 293 295 300 293 298 301 306 311 318 319 319 326 335 338 342 342 340 343 344 345 347 348 348 349 348 346 343 340 337 337 336 334 333 330 327 323 320 317 314
298 293 290 289 289 290 296 297 296 295 295 299 299 293 296 304 307 307 313 318 318 320 333 335 337 340 342 343 337 339 341 342 343 343 341 337 336 336 334 332 335 334 332 329 326 322 320 317 312
299 290 287 289 290 291 296 295 297 297 295 296 299 296 299 303 306 308 308 310 313 318 322 331 335 338 339 338 338 335 337 337 337 337 333 331 332 330 328 327 332 333 330 329 325 322 320 315 308
295 288 290 294 294 293 296 295 295 295 295 295 295 298 301 304 305 305 305 306 308 312 318 324 330 334 335 340 336 338 339 340 339 336 333 334 329 325 325 322 327 330 328 329 325 322 318 307 295
296 291 295 297 298 297 297 296 296 294 293 296 297 296 299 302 303 303 303 304 307 309 314 321 326 331 333 336 336 335 338 337 334 331 330 330 327 324 320 318 319 318 319 317 319 315 306 299 296
293 299 298 300 299 297 295 298 297 296 299 300 300 299 298 299 298 297 298 300 300 303 310 316 322 326 329 332 332 335 337 336 335 329 326 328 326 323 320 316 314 313 312 310 308 305 302 298 296
294 295 298 300 298 297 297 296 295 297 300 300 299 299 297 296 296 297 298 298 298 298 300 307 318 324 327 327 328 331 334 333 333 331 326 328 326 324 320 317 314 311 308 307 304 303 299 295 294
294 295 296 297 297 296 295 293 295 298 296 299 297 297 295 296 295 295 297 296 297 298 298 300 314 322 324 327 324 329 332 333 330 329 327 327 327 324 319 315 311 309 308 305 304 302 296 294 293
296 292 294 294 295 295 295 292 293 298 296 296 296 294 295 295 295 294 295 295 295 296 297 298 301 317 320 324 323 323 326 325 326 324 324 324 325 325 318 314 312 311 307 305 302 298 294 293 292
291 289 286 293 294 294 293 289 296 297 295 295 293 292 293 293 293 294 294 294 295 295 296 298 301 304 316 318 320 321 321 321 322 322 322 322 322 323 317 314 313 312 309 304 300 296 293 292 291
288 283 286 290 295 293 291 288 295 297 295 294 291 291 292 292 293 293 294 293 293 294 295 296 299 299 309 315 317 318 318 318 318 319 324 323 323 320 317 314 313 310 309 301 299 293 293 291 290
284 284 286 287 292 291 290 290 293 296 294 292 290 289 291 291 291 293 293 293 293 293 294 295 297 298 300 307 310 311 313 314 314 317 321 322 320 316 314 312 310 308 305 298 295 293 291 291 290
287 286 286 288 293 289 290 289 293 294 294 290 289 290 290 290 292 292 292 292 292 292 293 293 294 294 298 298 301 304 305 306 311 314 317 319 319 315 313 311 309 305 304 302 297 292 291 289 288
288 286 286 289 292 289 289 289 292 292 291 290 289 289 289 289 290 291 290 290 290 290 291 292 292 293 294 296 297 299 299 298 300 304 307 309 314 315 311 309 307 305 300 298 295 294 289 289 288
288 286 286 288 289 288 286 286 289 289 291 291 291 290 289 288 288 288 288 287 287 287 288 291 292 292 292 293 295 295 296 295 295 296 297 301 304 307 308 307 304 302 300 298 296 294 293 291 288
287 291 290 288 284 281 286 278 285 288 287 288 288 287 287 287 287 288 287 287 287 286 287 289 290 291 291 291 291 290 290 289 290 291 292 294 296 296 299 302 303 301 299 297 296 295 293 292 290
289 290 288 286 283 281 281 279 283 287 285 285 285 286 286 286 286 286 286 287 287 286 285 286 288 288 289 289 290 289 288 289 289 289 289 290 291 291 291 292 295 298 299 297 295 294 292 292 292
291 287 286 283 282 277 281 281 282 284 286 285 286 286 286 286 286 286 287 286 285 284 284 285 286 286 287 287 286 286 286 286 285 286 286 287 288 289 289 289 289 291 292 294 295 294 293 292 292
287 284 279 276 274 276 283 280 284 286 288 288 285 284 285 285 284 284 284 284 284 283 283 284 284 284 285 285 285 284 284 284 283 284 284 284 285 286 287 287 287 287 288 289 290 291 292 292 291
285 285 278 270 273 276 282 278 282 285 287 287 286 286 286 285 285 284 285 284 284 283 282 282 283 283 284 284 283 283 283 283 283 283 283 283 283 284 285 285 285 286 287 287 287 287 287 289 290
286 283 286 280 270 273 280 281 285 286 284 285 285 285 285 285 285 284 284 285 284 284 283 282 281 282 282 283 283 283 282 281 282 282 282 283 283 284 284 284 284 284 284 284 285 284 284 284 285
287 289 281 280 270 270 277 279 280 282 282 284 284 284 285 285 285 284 284 283 284 284 283 283 282 281 282 282 283 282 282 282 281 280 279 279 281 282 282 282 283 283 283 283 283 283 284 283 283
284 283 283 283 279 271 269 276 284 285 285 284 284 285 284 284 285 284 283 284 284 283 283 283 282 281 281 281 282 282 281 281 281 280 280 279 279 279 279 280 280 281 281 281 281 281 282 281 282
286 284 284 277 275 277 277 278 288 288 286 285 285 285 284 284 283 283 281 281 281 280 280 280 281 281 281 281 281 281 281 280 279 279 279 280 279 280 278 279 279 279 279 279 280 280 281 281 280

GFSSGP_sfc_thetae_033.txt.gz
Theta_e
316 310 309 306 296 292 288 291 293 294 294 301 298 296 295 296 296 292 309 323 330 334 342 348 351 354 355 354 353 352 351 350 349 348 348 349 351 351 349 348 346 345 343 342 341 340 338 337 335
312 312 306 298 290 286 288 291 293 295 297 297 297 297 297 295 301 308 314 322 333 337 343 346 348 353 354 354 352 351 351 350 349 348 348 348 349 349 348 347 344 343 342 341 340 338 335 333 332
311 308 300 293 287 286 288 291 295 296 297 296 300 299 300 298 303 307 314 320 334 337 343 345 347 353 354 353 352 351 351 351 349 348 348 347 348 348 347 346 344 342 340 338 337 334 332 328 327
307 303 297 290 289 290 293 295 293 295 299 297 299 299 297 303 304 310 318 328 332 335 340 343 348 352 353 352 352 351 351 351 350 348 348 348 349 348 346 344 342 339 338 335 334 331 327 324 322
301 296 290 288 288 291 296 294 295 295 294 295 297 294 295 302 311 317 319 327 330 332 337 340 346 350 352 352 351 351 351 352 351 351 351 349 347 345 344 343 341 338 334 333 331 327 324 320 317
298 293 288 286 288 291 293 294 294 293 292 294 299 298 295 303 310 314 318 318 330 332 335 339 340 344 348 349 349 350 350 350 350 351 350 349 347 344 341 339 339 337 334 332 330 325 321 318 315
295 290 287 287 287 290 293 296 298 294 292 296 302 297 298 301 305 307 317 316 320 330 333 336 341 341 339 342 342 346 347 348 349 349 348 346 344 342 340 339 339 335 333 332 329 323 320 316 313
296 292 288 287 287 289 294 295 295 293 294 298 298 294 296 304 304 309 311 313 313 321 331 333 337 341 341 340 336 338 341 343 344 343 340 338 337 337 335 333 335 335 333 331 328 323 319 316 312
296 288 285 288 288 291 295 295 295 295 295 295 297 299 298 302 305 307 306 309 311 317 323 330 333 338 342 343 338 334 336 337 337 336 333 330 332 330 329 328 332 335 334 330 328 323 320 315 309
293 286 288 292 293 292 295 293 294 294 296 293 294 298 299 302 305 304 303 304 306 309 315 323 329 334 338 340 340 339 340 340 339 338 334 332 332 329 326 323 328 331 329 330 327 323 320 306 294
294 290 293 295 296 295 295 294 295 293 291 295 295 297 298 299 300 299 298 298 301 305 309 317 324 329 335 338 338 337 333 335 337 336 334 331 329 326 324 322 321 320 320 318 320 315 306 296 292
294 297 296 298 298 296 294 296 296 294 298 297 298 297 296 294 294 295 295 295 295 297 298 301 315 324 328 332 336 336 336 332 333 331 330 329 326 324 322 320 319 317 313 312 310 307 304 299 296
293 294 296 298 297 295 296 295 294 295 298 298 296 295 295 294 294 294 295 296 295 295 296 297 299 318 325 325 326 332 334 335 334 332 329 324 325 324 321 319 318 316 313 309 306 304 302 297 294
294 294 295 296 296 295 294 292 293 296 295 296 295 294 293 293 293 293 293 294 294 295 296 297 299 306 320 324 323 328 332 332 331 330 330 324 322 321 321 318 316 315 312 308 306 303 301 295 293
294 292 293 293 293 293 294 291 292 296 296 294 292 291 292 292 292 291 292 292 292 294 295 297 300 303 316 320 320 322 330 329 329 329 327 323 323 323 322 318 315 314 311 307 304 301 297 294 292
289 288 285 291 293 293 292 289 295 296 294 292 290 289 291 291 291 291 292 292 292 293 293 296 299 300 311 317 318 320 320 321 322 323 325 325 324 323 319 316 314 314 311 309 306 302 296 293 291
286 282 284 289 293 292 290 288 294 295 294 290 288 289 290 290 290 291 291 291 291 292 293 294 296 297 302 312 315 316 316 318 320 322 323 324 324 323 320 317 314 312 311 308 305 299 298 293 291
283 283 285 285 290 290 288 289 293 294 292 288 288 288 288 288 289 290 290 291 291 291 292 293 294 295 299 303 308 307 306 308 312 311 314 320 321 319 317 315 313 311 309 305 301 299 294 292 291
285 284 284 286 292 288 288 288 291 292 288 287 287 287 288 288 290 290 289 289 289 290 291 291 291 292 295 296 298 300 297 298 299 302 304 308 311 314 314 313 312 309 308 306 302 296 295 293 291
286 284 285 288 290 288 288 288 289 289 288 288 287 286 287 287 287 288 287 287 287 287 289 290 290 291 292 293 294 296 295 295 295 297 298 299 301 303 307 306 305 305 303 301 298 296 294 293 292
286 285 285 287 287 286 285 285 286 287 288 288 288 287 287 286 285 285 285 285 285 285 286 288 289 290 291 292 293 293 293 291 291 291 292 293 294 294 296 300 302 301 301 300 298 296 295 294 292
285 290 289 287 284 282 285 278 283 285 285 286 285 284 284 285 285 286 285 284 284 284 285 287 287 287 289 290 290 289 287 286 287 288 289 290 290 290 290 291 293 297 299 298 297 296 294 293 292
289 289 287 285 282 280 281 279 281 284 283 283 284 284 284 284 284 284 284 284 283 283 283 284 286 286 285 286 286 286 284 285 285 285 285 286 287 287 287 288 289 289 290 291 294 294 293 293 292
290 286 285 282 281 276 281 281 280 283 284 283 284 284 285 284 284 284 284 284 282 282 282 283 284 284 284 284 284 283 282 282 282 282 282 283 284 285 285 285 286 286 287 287 288 289 290 292 292
286 284 278 276 275 277 281 279 282 284 285 286 284 283 284 284 283 283 283 282 281 281 281 283 283 282 282 282 282 282 281 281 281 281 281 281 282 282 283 283 283 283 284 285 285 286 287 288 288
284 285 279 271 272 276 281 278 283 284 285 286 285 284 284 283 284 283 283 282 281 281 280 281 282 282 282 281 281 281 281 280 280 280 280 281 281 282 282 282 282 282 283 283 283 283 283 285 285
284 282 285 279 268 272 279 281 284 284 283 283 283 283 283 283 283 283 283 282 282 281 280 280 280 281 281 281 280 280 280 279 279 279 279 279 280 282 282 282 282 282 281 282 282 281 281 282 284
286 288 281 279 270 269 276 278 280 281 281 283 283 283 284 284 284 283 283 283 282 282 281 281 280 280 280 281 281 280 280 280 279 279 279 279 278 279 279 279 279 279 280 280 280 280 280 280 281
284 282 283 283 278 271 268 276 283 284 284 283 284 285 285 285 284 283 283 283 282 282 281 280 280 279 279 280 280 279 279 279 279 278 278 278 279 278 278 279 278 278 278 278 278 278 279 279 279
285 284 284 280 276 276 276 279 286 286 286 285 285 285 285 284 284 283 281 281 281 280 279 279 280 280 280 280 279 279 279 279 278 278 278 278 278 278 278 278 278 278 278 277 277 277 277 277 277

GFSSGP_sfc_thetae_036.txt.gz
Theta_e
315 310 307 304 295 291 287 290 294 293 295 300 297 295 297 295 294 291 306 320 328 333 340 347 351 355 355 354 354 352 351 350 349 349 349 351 351 351 349 347 346 345 342 342 340 340 339 336 336
311 310 304 296 289 285 287 290 291 293 295 297 298 296 297 295 299 306 312 320 328 334 342 345 348 353 355 354 353 352 351 350 349 347 348 349 350 349 348 346 344 343 342 340 340 337 335 333 332
310 306 299 291 286 285 287 291 295 295 295 300 299 302 299 296 303 309 313 322 331 334 340 344 347 352 355 354 352 351 351 351 349 348 347 347 348 348 348 345 343 342 340 339 337 334 331 329 328
306 301 296 289 287 290 291 294 292 296 299 297 299 297 296 301 302 310 317 323 330 334 339 343 348 353 354 353 352 351 351 350 350 349 347 347 348 348 346 344 342 339 338 336 334 331 328 325 322
299 295 289 287 288 291 292 292 293 293 298 299 299 296 295 300 312 315 317 326 326 330 335 339 346 351 352 352 352 351 351 351 351 350 350 350 349 346 345 344 340 337 335 333 332 328 325 321 318
297 293 287 285 288 290 292 292 293 292 292 296 298 296 297 301 308 312 316 315 325 330 334 338 338 344 347 350 350 350 350 350 351 350 350 349 346 345 343 342 339 336 333 331 330 326 323 319 316
294 289 286 286 286 289 291 293 296 296 292 298 300 296 297 303 303 306 313 311 316 325 331 334 337 339 339 343 344 346 347 347 347 348 347 346 345 344 342 340 339 335 332 331 330 324 321 317 315
294 291 286 285 286 287 292 293 293 297 292 297 296 293 295 301 304 310 312 315 314 320 327 330 333 341 339 339 336 337 341 343 344 342 340 337 338 338 337 333 336 336 333 330 329 323 320 317 313
294 287 284 287 288 290 293 293 294 294 293 295 295 299 296 302 304 306 305 307 309 314 317 326 330 338 340 342 335 332 335 337 337 337 334 329 333 332 328 328 332 336 334 331 329 323 320 316 310
291 285 286 290 294 294 293 293 294 296 294 292 293 297 298 298 299 298 296 296 296 299 307 315 325 334 337 339 340 339 336 339 339 338 336 333 331 330 328 324 327 331 330 331 328 323 318 305 293
292 288 290 293 294 294 293 293 294 294 292 292 293 296 295 294 295 294 294 293 293 295 297 298 304 324 335 336 337 337 339 335 337 337 335 333 330 327 326 325 325 325 321 318 319 312 306 298 292
292 295 294 297 296 294 293 295 294 294 294 296 294 294 293 293 293 293 293 293 293 294 296 297 297 300 327 335 336 336 336 333 329 332 333 331 328 326 324 322 322 321 318 316 312 308 304 300 296
293 293 295 296 296 294 294 293 292 294 294 294 295 294 292 291 291 292 292 293 293 293 295 296 297 298 313 329 333 333 333 334 333 331 330 329 327 325 323 322 320 319 316 315 312 308 304 300 295
292 293 294 295 294 293 293 291 291 292 293 293 293 291 290 290 290 290 291 291 291 293 294 296 298 301 307 321 326 330 331 331 332 331 329 326 326 324 322 321 317 317 316 314 309 306 303 300 294
293 290 291 291 291 292 293 289 291 293 293 291 290 289 290 290 290 289 290 290 290 292 293 295 298 301 312 317 320 326 329 328 328 328 328 327 326 324 322 319 317 317 315 312 308 306 303 299 294
288 287 285 289 291 291 292 288 293 292 293 289 288 287 289 289 289 289 290 290 291 291 292 294 297 300 311 316 317 320 320 320 321 323 325 325 325 325 322 320 317 317 314 311 308 306 303 300 297
285 283 282 288 291 290 289 288 293 293 291 288 287 287 288 288 288 288 289 289 289 290 291 292 294 296 305 309 310 309 308 309 308 309 312 316 318 320 321 319 318 316 313 309 308 304 302 300 297
283 282 283 284 288 289 287 289 292 291 289 286 285 286 286 286 286 287 287 288 288 289 290 291 293 294 297 302 302 301 300 300 301 299 301 303 306 311 313 313 311 312 310 307 305 303 298 296 295
285 284 284 285 290 287 288 288 290 288 286 285 285 285 285 285 287 287 287 286 287 288 289 290 291 292 294 294 296 296 293 294 295 295 296 296 297 301 304 305 305 307 305 303 301 299 298 297 293
285 283 283 287 289 288 287 288 286 287 286 286 285 285 284 284 285 285 285 285 285 285 287 288 289 290 292 292 292 292 292 291 291 293 293 293 293 294 296 299 300 301 301 301 300 298 296 295 293
284 283 284 286 286 286 284 284 284 286 286 286 286 286 285 284 283 283 283 283 283 283 283 285 286 288 289 291 291 291 290 289 288 288 288 288 288 289 290 291 293 295 297 297 297 297 296 294 294
284 289 288 286 285 281 284 279 282 284 284 284 284 283 283 283 284 283 282 282 282 282 283 284 284 285 286 288 287 286 285 283 284 285 285 285 285 285 286 287 288 289 290 289 292 295 294 293 292
288 289 287 285 282 280 280 278 281 283 282 282 282 283 283 283 283 282 282 282 282 282 281 282 283 283 283 284 284 283 282 282 282 282 283 283 284 284 284 284 284 284 285 286 287 288 289 290 290
289 286 285 282 280 276 281 281 280 281 284 283 283 283 284 283 283 283 282 282 281 281 281 281 281 281 282 282 282 281 281 280 280 280 280 281 282 282 282 283 282 283 283 283 284 284 286 286 288
286 283 278 276 275 276 279 278 282 285 285 285 284 283 283 283 282 282 281 280 280 280 280 281 281 280 281 280 280 280 279 279 279 279 279 279 280 280 280 281 281 281 282 282 282 281 282 283 284
284 284 279 271 272 275 280 278 283 284 284 285 286 284 283 282 282 282 281 280 279 280 280 280 280 280 280 280 279 279 279 279 279 279 278 278 279 279 280 279 280 280 280 281 280 280 280 281 282
284 281 284 278 268 272 279 281 284 283 282 282 282 282 282 282 282 283 282 281 280 279 279 280 280 280 279 279 279 279 278 278 278 277 278 277 278 280 278 278 278 278 279 279 279 278 278 278 279
286 287 281 279 271 268 277 278 280 282 281 281 281 281 282 283 283 283 282 282 281 280 279 279 279 279 279 279 279 279 278 278 278 278 278 278 278 278 278 278 278 277 278 277 277 277 278 277 277
284 282 282 283 279 272 269 276 282 284 283 282 283 283 284 284 283 283 282 282 281 280 279 279 278 278 279 279 279 278 278 278 278 278 278 278 278 278 278 278 277 277 277 277 276 276 276 276 276
284 284 284 281 276 274 275 279 285 284 285 285 284 285 285 285 284 283 282 281 280 279 279 278 278 278 279 279 279 279 279 278 278 277 278 278 277 278 277 277 277 277 276 276 276 275 275 275 275

GFSSGP_sfc_thetae_039.txt.gz
Theta_e
316 312 311 307 299 296 293 297 299 300 300 303 303 302 302 303 299 298 313 322 331 336 341 350 352 355 355 354 353 353 352 351 350 350 353 353 352 351 348 347 345 344 343 342 341 340 338 336 336
313 312 307 299 293 290 292 296 298 300 302 303 302 303 302 301 306 311 317 325 334 337 343 349 348 353 354 354 353 352 352 351 349 349 350 351 350 349 347 345 344 343 341 340 339 337 334 333 332
311 306 303 295 290 290 293 296 298 300 301 302 302 304 304 304 308 312 318 325 335 337 344 348 347 353 355 354 353 352 352 352 349 348 348 349 349 349 347 345 343 342 340 339 337 334 331 328 327
308 304 298 292 292 294 296 296 298 300 301 301 302 301 303 309 310 315 321 331 335 337 344 345 348 353 354 353 352 352 352 351 350 348 347 347 348 348 347 344 341 339 338 337 335 332 328 325 323
301 299 293 291 293 295 295 298 299 299 300 301 301 301 302 307 315 321 325 329 332 337 341 345 346 351 353 353 352 351 351 351 351 350 349 349 350 348 345 343 339 337 335 334 333 329 326 322 320
299 296 290 289 292 295 297 297 298 297 298 300 300 300 303 307 310 318 322 327 332 335 339 342 339 343 348 350 351 351 350 351 351 350 349 348 347 345 344 343 339 336 334 332 332 327 324 320 319
296 292 289 290 291 294 296 297 297 297 297 299 302 299 304 304 306 313 321 320 326 334 336 339 342 342 337 343 344 346 348 348 348 347 347 345 345 345 343 342 340 335 334 332 331 326 322 319 317
295 293 290 290 291 293 297 297 298 298 298 301 303 298 301 302 308 313 314 311 317 319 329 334 338 341 344 347 337 339 341 343 343 342 340 337 337 339 337 334 337 336 334 332 329 325 322 318 314
297 289 287 290 290 293 297 297 299 299 299 299 300 300 298 299 302 301 302 301 302 303 305 313 329 337 340 343 341 332 334 337 337 338 334 331 342 340 336 330 333 335 334 331 328 324 322 314 307
293 288 289 292 293 294 296 296 297 298 297 298 299 298 298 298 298 297 297 297 298 299 301 302 304 318 336 339 342 340 339 343 344 343 341 342 341 338 332 326 328 332 330 330 328 324 317 308 300
295 290 292 295 296 297 296 296 298 297 295 298 299 295 296 296 296 295 295 295 295 297 299 300 301 303 314 337 339 340 340 343 340 339 338 337 334 331 329 328 328 328 322 324 322 319 316 308 302
293 295 295 298 298 297 296 297 296 296 298 296 295 295 294 293 293 293 293 294 295 296 298 299 301 302 306 328 337 338 337 336 337 337 339 334 331 330 328 326 326 325 323 320 319 316 314 310 304
295 295 296 297 297 296 295 295 295 295 293 294 294 293 292 292 292 293 293 295 295 295 297 298 300 303 307 319 334 335 336 336 335 334 332 332 331 328 327 326 324 324 321 319 317 315 315 312 307
294 294 294 295 295 295 295 293 294 294 293 293 292 291 291 291 291 292 292 293 293 294 295 297 300 305 311 322 331 332 332 331 332 331 330 330 330 329 326 324 322 321 322 319 317 313 313 313 307
294 292 292 292 293 293 294 291 292 294 293 291 290 290 290 290 291 290 291 291 292 293 294 296 302 310 320 323 326 327 326 324 323 323 323 325 326 325 324 323 322 321 318 317 313 310 308 306 302
290 289 288 291 293 293 294 291 293 293 293 290 289 288 289 289 289 289 290 290 291 292 293 296 300 311 314 314 314 312 311 311 311 311 313 315 317 321 321 320 318 318 317 314 312 309 309 307 302
287 286 285 288 293 292 292 291 292 293 291 288 288 288 288 288 288 289 289 289 290 291 292 295 298 303 306 305 304 303 303 302 303 303 304 307 310 314 313 312 312 313 312 309 308 305 303 302 301
285 284 284 285 290 291 289 291 291 289 290 287 287 287 287 287 287 288 288 289 289 290 292 294 296 297 301 302 301 300 299 298 297 297 298 299 302 307 307 306 307 309 307 305 305 303 301 299 297
287 285 286 287 290 290 289 289 291 288 287 286 286 286 286 286 287 288 288 287 288 289 290 291 293 294 297 298 298 297 294 294 294 293 293 294 296 298 302 303 303 305 303 302 302 301 300 299 297
285 284 284 287 289 289 288 288 289 288 287 287 286 286 286 285 286 286 286 286 286 286 287 288 290 291 294 295 295 295 293 291 290 289 289 290 291 293 294 295 296 298 299 299 299 299 300 300 296
284 284 284 286 287 287 286 286 286 286 287 287 287 286 286 285 285 285 285 284 284 284 284 286 287 288 289 292 293 292 291 289 287 287 286 287 288 288 289 290 291 292 292 293 294 296 296 296 298
283 287 287 286 285 282 285 280 285 285 284 285 285 284 285 285 285 284 284 283 283 283 284 285 285 286 286 288 287 287 285 283 284 285 286 286 286 286 286 287 287 287 288 288 290 291 293 295 293
287 288 287 286 284 282 282 280 283 284 283 283 284 284 284 285 284 283 283 283 283 283 283 283 284 284 284 285 286 285 283 284 284 284 284 285 285 285 285 285 285 285 286 286 286 287 287 289 290
288 286 285 283 281 277 282 282 281 283 285 284 284 284 284 284 284 283 283 283 282 283 282 282 283 282 283 283 283 283 283 283 283 283 283 283 283 283 283 284 284 284 284 284 284 285 285 285 286
286 285 279 277 277 278 280 279 283 286 286 286 285 284 284 284 283 283 282 281 282 282 282 282 282 281 282 282 282 282 282 282 282 282 282 282 282 281 281 282 282 282 283 283 283 283 283 283 283
284 285 280 274 274 276 280 278 284 285 285 285 286 286 285 284 283 283 282 281 281 282 282 282 281 281 281 281 281 281 281 282 281 281 281 281 281 281 281 281 281 281 281 281 281 281 281 282 282
285 282 285 278 269 274 280 282 285 284 283 283 283 284 284 283 283 283 283 281 280 281 281 281 281 281 281 281 281 280 281 281 280 280 281 280 281 281 281 281 280 280 280 280 280 280 279 280 280
286 288 282 280 273 271 278 279 281 283 283 282 282 283 284 284 283 284 283 282 281 280 281 281 281 281 281 281 281 280 280 280 280 281 280 280 280 280 280 279 279 279 279 279 279 279 279 279 279
284 283 282 283 280 274 272 277 283 285 284 282 283 284 284 284 284 284 284 283 282 281 280 280 280 280 280 281 280 280 280 280 281 280 280 280 280 279 279 279 278 278 278 278 278 277 278 277 278
285 284 284 280 277 276 276 279 285 285 285 285 284 285 285 285 285 284 284 283 281 281 280 280 280 280 281 280 280 281 281 280 280 279 279 279 278 278 278 277 277 277 277 277 276 276 277 277 276

GFSSGP_sfc_thetae_042.txt.gz
Theta_e
323 320 324 320 308 307 299 300 304 303 304 308 307 307 306 307 304 301 322 329 335 340 347 352 353 355 355 354 352 352 352 351 351 352 352 351 350 349 347 346 344 343 342 342 340 338 337 336 336
320 318 320 314 303 297 298 303 302 304 306 308 308 307 307 305 311 316 322 329 337 341 348 351 349 354 354 354 353 352 352 351 350 351 352 350 350 348 346 345 343 342 341 340 338 335 333 331 332
317 314 314 309 304 297 298 302 304 306 307 307 307 309 308 307 314 317 325 331 339 341 347 350 348 353 353 353 353 352 352 352 349 349 351 349 348 348 346 344 342 341 340 339 337 334 330 327 327
318 316 310 304 298 300 301 303 305 305 307 307 307 305 308 314 317 324 328 334 338 341 346 347 349 353 354 353 352 351 351 350 349 348 348 348 348 348 345 343 341 339 338 337 335 332 328 324 324
315 313 305 300 298 300 303 304 305 304 305 306 306 304 306 313 319 327 330 333 335 341 345 349 347 350 350 351 352 352 351 351 349 348 347 347 347 347 344 341 339 337 335 335 333 330 325 321 322
311 310 301 297 298 301 303 304 305 304 304 305 305 305 307 313 315 323 327 332 336 340 344 346 341 344 347 348 348 348 349 349 349 349 348 347 345 345 344 342 339 336 335 333 331 328 324 320 320
307 306 300 300 299 300 302 304 303 303 303 304 307 303 308 309 315 324 326 328 336 340 342 345 346 346 336 343 344 346 347 346 347 347 346 345 344 344 343 342 339 336 334 334 330 327 323 319 318
308 307 299 299 298 299 303 303 304 304 303 307 307 303 304 306 311 317 315 314 315 316 324 335 343 343 345 350 337 339 341 343 344 342 340 338 338 339 337 334 337 336 334 333 329 326 323 318 316
305 301 297 298 298 300 304 303 305 305 305 305 305 304 302 305 309 311 311 311 311 310 311 313 319 334 340 344 343 335 334 336 337 338 335 334 345 343 339 331 334 335 334 332 328 325 320 313 306
304 300 297 301 302 302 303 303 304 303 304 303 303 303 304 305 306 306 306 306 307 307 309 310 311 315 323 339 342 343 342 344 345 346 345 343 342 341 339 328 329 331 330 332 328 324 317 316 310
302 299 299 301 303 304 303 303 304 303 301 303 303 302 302 303 303 303 303 303 303 306 308 309 310 311 316 335 341 344 344 343 346 343 342 341 340 338 335 333 332 332 324 328 326 324 327 320 315
300 301 301 303 304 302 302 304 302 303 302 301 302 301 301 301 300 300 301 302 303 305 307 309 311 313 314 329 339 340 341 342 344 343 342 341 339 336 334 331 332 329 328 325 323 322 325 322 315
302 302 302 304 303 303 302 302 301 301 300 300 300 299 299 299 299 300 300 302 303 304 306 309 313 316 316 319 338 339 338 339 339 338 335 334 336 338 337 332 331 329 327 325 329 323 320 323 319
301 301 301 302 301 301 300 300 300 297 299 298 298 298 298 298 297 299 300 301 301 303 306 310 312 317 317 325 335 335 332 329 327 326 328 329 330 329 329 329 328 325 324 324 322 320 316 315 312
300 298 300 300 299 299 301 296 297 299 299 297 296 296 296 296 297 297 298 299 300 303 307 304 308 320 322 321 318 318 318 318 317 317 318 321 325 325 324 323 321 321 320 320 316 313 313 313 311
298 297 296 298 299 298 299 297 298 299 299 297 296 296 295 294 295 296 297 298 300 303 301 303 309 311 310 310 310 308 309 309 309 310 313 315 317 318 319 316 316 316 314 313 312 310 310 309 307
296 296 294 296 299 298 298 297 297 298 298 297 296 295 294 295 295 295 296 297 299 301 300 302 305 306 306 305 304 303 304 305 307 308 307 309 312 312 313 312 311 311 311 310 310 307 309 308 308
295 293 293 295 297 297 297 298 297 296 297 297 295 294 294 293 293 294 295 296 298 301 302 302 302 303 303 303 303 304 303 303 302 302 303 305 306 311 312 310 308 310 310 309 310 308 305 304 302
296 295 295 295 296 296 298 298 299 296 295 295 294 294 293 292 293 294 294 296 298 299 301 301 301 303 306 308 306 303 300 298 297 297 298 300 301 302 304 305 306 307 306 306 306 308 307 306 304
294 294 294 295 295 295 296 295 299 295 296 296 294 293 293 292 292 292 293 294 295 296 298 299 300 301 302 303 302 300 296 294 294 294 293 294 295 296 297 299 299 300 301 300 301 303 305 305 304
293 293 294 293 293 294 293 294 296 293 292 293 293 294 293 293 292 292 292 292 294 293 294 295 297 298 299 299 297 296 295 294 292 291 291 291 292 292 292 292 293 293 295 294 296 298 299 299 301
291 295 293 292 291 290 293 289 294 294 291 290 291 291 292 292 292 291 291 291 291 291 292 293 294 294 295 296 296 296 293 289 289 289 290 290 291 290 291 291 291 291 291 291 291 291 293 294 293
294 294 293 292 291 290 290 289 294 289 289 290 291 291 292 293 292 290 289 289 288 290 291 291 291 291 292 292 293 291 289 289 289 289 289 289 289 289 289 289 289 289 289 289 289 290 290 290 289
293 291 290 290 290 285 291 289 292 290 292 293 291 291 291 291 290 289 289 288 287 288 289 289 289 288 289 290 290 290 289 288 288 288 288 288 288 288 288 288 288 288 288 288 288 288 288 288 288
293 292 286 284 284 284 286 286 293 295 292 293 291 291 291 290 289 288 287 287 286 287 287 287 287 286 288 288 288 288 288 289 288 288 288 287 287 286 286 287 286 286 286 286 287 286 286 286 286
290 293 288 281 281 285 284 284 290 291 291 291 294 292 291 290 289 288 288 287 286 286 286 286 286 285 287 287 287 288 288 288 287 287 287 286 286 285 286 285 285 285 284 284 285 285 285 285 285
289 287 292 283 277 284 287 288 292 288 288 289 290 290 289 289 289 288 288 287 287 287 287 287 286 286 286 287 287 287 287 287 286 286 286 286 286 284 285 284 284 284 284 283 284 284 283 284 284
292 294 286 287 281 281 284 285 290 287 289 288 287 288 289 290 289 289 288 287 287 287 287 286 286 286 286 286 287 286 286 286 286 286 285 285 285 284 283 283 283 283 283 283 283 283 283 282 283
288 287 288 289 287 285 283 286 293 293 292 289 290 290 291 290 289 289 289 288 287 287 287 286 286 286 286 286 286 286 286 286 286 285 285 284 284 283 282 282 281 281 281 281 281 281 281 280 281
292 291 290 287 282 283 284 288 290 291 292 292 291 291 292 291 291 290 290 289 286 285 286 286 286 286 286 286 286 286 285 285 285 285 284 284 282 282 281 280 280 279 279 279 279 279 279 279 279

GFSSGP_sfc_thetae_045.txt.gz
Theta_e
326 323 325 322 309 307 300 300 306 304 305 309 310 308 306 308 305 303 326 333 335 342 350 352 353 353 354 353 352 352 352 351 352 352 351 350 349 347 346 345 343 343 342 340 338 337 336 336 336
322 320 323 316 304 298 299 304 302 305 308 310 309 309 307 305 314 318 323 332 337 342 348 351 350 353 354 353 352 352 352 351 351 351 350 349 348 347 345 344 343 342 341 340 337 334 331 330 333
321 317 315 309 304 299 299 304 305 306 308 308 307 311 309 308 316 319 328 333 338 342 348 351 350 352 353 353 352 352 352 351 350 350 349 349 348 346 345 343 341 340 339 338 336 333 329 327 329
319 318 313 304 300 302 303 305 307 306 308 309 309 305 311 318 320 326 332 335 337 341 347 347 349 352 352 352 352 351 350 350 349 349 349 348 348 346 344 342 340 338 337 336 334 331 326 325 326
318 314 305 302 300 302 305 306 308 305 306 307 308 305 308 314 325 328 331 333 335 339 345 350 348 351 351 350 349 348 349 349 348 348 347 347 346 345 343 340 338 337 336 335 332 329 324 323 325
312 312 302 298 300 303 305 307 307 306 306 306 305 307 308 315 317 326 328 333 336 340 344 347 342 342 348 349 348 348 349 348 346 347 347 345 346 344 343 340 338 337 336 333 331 327 323 321 322
309 306 302 302 301 301 304 308 305 305 305 305 308 304 309 309 317 325 326 331 337 341 342 344 345 345 337 341 344 345 347 346 346 346 345 344 344 344 343 342 338 336 335 332 329 326 322 319 319
310 306 301 302 300 301 306 306 307 306 305 309 309 305 306 308 312 320 319 319 321 323 328 336 341 344 345 349 338 338 342 343 344 343 341 339 339 339 336 335 338 336 335 331 328 326 322 316 313
309 301 299 300 301 303 306 304 307 309 307 307 307 307 306 308 312 314 315 314 315 314 316 318 323 335 339 343 340 335 334 337 338 339 335 334 344 342 336 332 335 336 334 331 329 325 320 312 309
306 301 300 304 305 304 306 305 306 305 305 304 305 306 307 309 310 310 310 310 310 310 312 313 315 319 330 338 342 345 345 345 343 344 344 343 342 342 339 329 329 331 331 331 328 324 320 320 315
305 300 302 303 305 307 305 304 307 305 303 306 305 305 306 307 307 307 307 307 307 309 311 312 314 315 318 333 340 344 345 343 343 343 343 342 342 340 340 336 332 332 325 331 328 326 328 324 319
302 303 303 304 306 305 304 306 304 305 304 305 305 305 305 304 304 304 305 306 307 309 310 313 315 317 317 325 338 341 341 343 342 341 341 341 340 339 336 334 334 335 330 330 328 327 326 324 319
303 303 304 306 305 305 305 304 304 304 304 304 303 303 303 303 303 304 304 306 307 307 310 314 318 320 320 320 337 339 336 337 335 334 335 337 336 336 336 334 331 332 330 327 329 326 322 322 321
304 304 303 305 304 304 301 303 302 304 304 302 302 301 302 301 301 303 303 304 305 308 311 313 315 322 318 328 331 328 328 325 325 325 328 331 331 329 329 328 324 323 323 322 322 319 319 317 314
303 300 303 303 303 302 303 300 299 303 302 301 301 301 300 300 301 300 301 302 305 309 308 308 314 320 320 316 316 317 318 317 316 318 320 321 325 327 324 323 323 321 320 318 318 315 314 316 314
300 301 298 303 302 301 301 299 302 302 301 301 301 301 299 298 299 300 301 302 306 307 305 307 311 311 309 307 308 308 310 312 312 313 314 317 318 319 317 315 314 314 314 313 312 310 310 309 310
300 296 299 300 302 301 300 300 301 302 301 301 301 300 299 298 298 299 300 302 306 304 304 305 307 306 305 304 304 305 306 306 308 310 311 313 315 316 315 314 314 312 312 312 311 311 310 311 311
297 297 299 298 300 299 299 299 300 300 301 301 301 300 299 298 296 298 299 302 306 304 305 304 305 304 304 305 304 303 302 303 304 304 305 306 308 310 311 311 312 311 311 309 311 311 311 308 307
300 298 298 301 300 298 299 299 302 301 300 301 301 300 298 297 297 298 299 303 305 303 303 304 305 305 307 307 306 304 301 300 299 298 300 300 301 303 304 304 305 306 304 304 305 307 308 306 305
298 297 297 301 298 297 298 298 302 303 300 301 301 300 298 296 296 297 299 301 303 303 304 304 305 308 309 307 305 302 299 297 296 295 295 296 296 296 297 298 298 300 299 298 299 301 303 303 303
297 296 297 297 296 297 296 295 298 302 302 300 300 300 298 296 295 295 297 299 300 301 302 302 304 304 304 303 300 298 297 296 294 293 292 293 294 294 294 294 294 294 294 293 293 294 295 295 299
294 300 297 296 294 291 297 289 298 301 297 296 296 297 296 296 296 296 295 296 297 297 298 300 300 301 301 302 301 299 295 291 291 291 292 292 293 292 292 293 293 293 292 292 292 292 292 292 290
296 298 296 296 294 294 295 289 295 299 296 295 295 295 296 296 295 294 294 294 294 295 295 296 295 295 296 297 297 295 292 292 291 290 290 290 291 291 290 291 291 291 291 291 291 291 291 291 289
298 295 294 294 293 287 293 292 293 296 295 297 295 294 295 294 294 293 293 292 291 292 293 293 292 292 293 294 294 292 291 290 290 290 290 289 289 289 289 289 289 288 289 289 289 290 289 289 289
296 293 288 286 285 285 292 292 294 300 296 298 294 294 294 294 293 292 290 290 290 290 291 291 291 289 291 292 292 292 291 291 290 290 289 288 288 287 287 287 287 287 286 287 288 288 287 287 287
292 294 289 283 285 287 286 286 293 298 297 295 297 295 295 293 293 291 291 290 289 289 289 288 289 288 289 290 290 291 291 290 290 289 289 288 287 286 287 286 286 286 286 286 287 287 286 286 286
293 290 297 288 283 283 289 291 296 292 291 293 295 294 292 292 292 291 291 290 289 288 288 288 288 288 288 289 289 289 289 289 288 288 288 287 287 286 286 286 285 285 285 285 285 285 284 285 285
294 297 287 288 282 282 289 290 291 289 290 291 292 292 292 292 292 291 291 290 289 289 288 289 288 287 288 288 288 288 288 288 288 288 287 286 286 285 285 284 284 284 284 283 284 284 284 283 284
289 289 291 292 290 286 285 288 296 296 294 291 292 293 292 292 292 291 291 290 290 289 288 288 288 288 287 288 288 288 288 288 288 287 286 286 285 284 284 283 283 282 282 282 282 282 281 281 281
296 293 292 287 285 287 286 289 292 297 298 295 293 293 294 293 293 292 291 290 289 288 288 287 287 287 288 288 288 287 287 287 287 286 286 286 284 284 283 282 281 281 280 280 280 280 280 280 279

GFSSGP_sfc_thetae_048.txt.gz
Theta_e
324 320 320 318 306 303 296 297 300 301 301 303 304 303 302 304 302 300 319 330 332 345 349 352 353 354 354 353 353 353 353 354 352 352 351 350 348 346 345 344 343 341 341 339 337 335 334 336 337
318 319 318 313 299 294 293 299 299 302 304 304 303 303 303 302 312 317 320 331 334 345 348 350 349 351 353 352 353 352 352 352 352 351 350 349 347 346 345 343 342 340 339 339 336 333 331 332 335
320 318 310 305 299 294 294 299 299 302 302 302 300 305 305 306 315 317 322 331 335 341 347 349 349 351 350 352 352 352 352 352 352 350 349 348 347 345 343 341 340 339 337 337 334 330 328 328 332
315 314 309 299 296 298 299 300 302 302 303 303 303 300 308 317 317 322 329 331 335 340 348 346 349 351 350 352 351 351 350 349 350 349 349 348 347 345 342 340 339 338 336 335 332 328 326 328 329
313 310 301 296 296 297 301 303 302 302 300 301 299 300 303 313 322 325 326 329 332 335 346 347 348 349 349 350 350 349 349 349 349 349 348 347 346 344 341 340 338 337 335 333 330 326 324 325 326
308 306 297 293 295 298 300 302 301 300 300 299 300 302 302 312 318 320 326 328 333 337 343 346 341 343 347 348 347 347 347 346 347 348 348 346 344 344 341 339 338 337 335 332 329 325 322 321 321
305 302 297 297 296 297 300 302 298 298 299 300 302 300 301 305 314 318 320 326 330 336 339 340 344 341 338 340 344 345 345 346 346 346 345 344 343 343 342 340 338 337 334 332 329 325 320 318 317
306 301 295 293 295 297 301 301 302 301 299 304 304 298 297 300 307 314 314 314 316 316 319 323 334 339 342 344 337 339 341 342 343 342 340 338 338 338 336 334 337 337 334 332 329 326 319 314 313
306 296 293 295 296 298 302 299 301 301 300 301 303 300 301 304 308 310 309 309 309 310 310 312 316 330 335 339 339 334 336 337 337 337 333 331 338 335 331 332 335 336 334 331 329 325 319 314 314
301 296 297 300 299 299 302 300 301 298 300 299 300 303 305 305 305 305 304 303 304 304 306 308 309 312 322 334 338 342 341 339 339 340 337 339 337 337 332 327 330 332 331 331 328 324 322 320 308
301 296 298 300 303 303 302 299 301 298 297 299 300 300 302 303 302 302 302 302 302 303 306 308 310 311 312 328 336 337 339 337 336 338 336 335 335 331 331 327 328 326 324 326 324 322 321 316 311
297 301 300 304 303 302 300 302 299 299 297 302 301 302 302 301 300 300 300 301 301 304 307 310 313 314 312 314 334 336 337 335 334 334 335 334 332 332 330 328 330 329 327 325 324 320 319 317 313
299 300 301 303 302 301 303 299 299 298 300 301 301 302 300 299 299 300 300 302 302 303 308 310 313 316 315 313 334 332 330 329 328 328 330 331 329 329 329 329 327 325 326 323 321 319 318 313 314
301 301 301 302 302 302 299 299 298 299 300 299 300 299 298 298 297 298 299 299 301 306 306 308 315 318 319 321 324 322 320 320 321 320 321 326 327 325 324 323 322 320 321 319 317 315 315 313 312
301 296 299 300 300 299 300 296 296 300 300 298 298 296 297 297 297 296 296 299 302 305 307 309 313 314 313 314 315 315 315 316 315 315 317 318 318 316 316 315 314 315 316 315 314 313 312 312 312
296 296 292 299 300 298 297 292 300 298 297 296 297 295 297 296 296 296 297 300 304 303 305 308 310 308 307 309 310 310 311 311 312 313 312 313 314 313 312 311 311 312 313 313 311 310 310 310 308
295 290 293 295 299 297 295 294 297 298 297 296 296 296 296 295 295 296 297 300 302 303 305 306 306 304 304 305 305 305 306 306 306 307 306 307 311 312 310 308 308 308 307 308 307 305 304 302 301
291 291 294 293 296 296 293 293 296 297 297 296 296 296 295 295 294 296 297 301 302 304 305 305 304 304 304 303 302 302 301 300 301 299 300 302 304 304 303 303 302 303 301 300 300 304 303 299 298
296 294 292 295 296 294 294 294 297 296 295 295 296 295 294 294 294 296 298 301 302 303 304 304 304 304 305 304 302 299 296 294 294 294 295 295 296 298 298 298 298 297 295 295 296 298 298 297 297
295 293 292 296 296 293 293 293 297 297 296 297 297 295 294 292 292 295 296 299 302 302 302 303 304 305 306 303 300 295 293 292 291 291 291 292 292 292 293 291 291 291 290 290 290 290 294 293 292
294 292 292 293 294 292 290 289 293 298 299 298 298 298 295 292 291 292 294 296 300 300 301 303 303 301 299 296 295 293 292 290 289 288 288 290 290 290 290 290 290 289 289 288 287 287 287 286 288
291 296 296 294 290 285 291 283 291 295 296 296 296 294 293 292 293 293 294 294 295 296 297 298 298 297 297 296 293 291 289 286 286 287 287 288 288 288 288 288 288 287 287 286 286 287 286 285 284
293 295 293 292 289 287 288 286 290 296 295 294 294 293 292 292 292 292 292 293 292 293 292 292 293 293 293 293 292 290 287 287 287 287 286 286 286 286 287 286 286 286 286 285 285 284 284 284 283
296 293 291 290 289 281 288 288 288 293 294 295 294 293 293 292 291 290 290 290 289 289 289 289 289 289 290 290 289 287 287 287 286 286 285 284 285 285 285 285 284 284 284 284 284 283 283 283 283
293 290 283 280 279 280 287 286 290 294 293 296 294 294 292 292 291 289 287 287 287 287 288 288 287 287 288 288 288 288 287 287 286 285 284 284 283 282 283 283 282 282 282 283 283 282 281 282 281
290 291 284 277 279 280 282 281 288 291 292 293 295 294 292 291 290 288 287 287 287 287 286 286 286 285 287 287 287 287 287 287 286 285 284 283 282 282 282 282 282 282 282 282 282 281 281 280 280
290 287 294 285 276 277 284 287 292 290 289 290 291 292 291 291 290 288 288 287 286 285 285 285 285 286 286 286 286 285 285 285 284 284 283 282 282 283 282 281 281 281 281 281 281 280 279 279 279
291 293 284 284 274 275 282 284 287 286 288 288 290 290 291 291 290 289 288 286 286 285 284 285 285 285 285 285 285 285 285 284 284 283 282 281 281 282 281 280 280 280 280 279 279 278 278 278 278
288 286 288 289 285 278 278 284 291 293 291 289 291 292 291 291 290 288 288 287 286 285 284 284 284 284 284 285 284 284 284 284 284 283 282 281 281 281 280 280 279 279 278 278 277 277 277 277 277
293 290 290 285 282 284 282 286 289 291 293 292 292 292 292 291 290 289 288 287 285 285 284 284 284 284 284 284 284 284 284 283 282 282 282 281 280 280 279 279 278 278 278 277 277 276 276 276 276

GFSSGP_sfc_thetae_051.txt.gz
Theta_e
319 313 310 311 300 294 289 293 295 297 296 298 301 304 302 302 303 297 318 328 343 347 350 350 352 354 352 353 353 353 353 353 352 350 350 348 346 344 344 342 340 340 340 338 335 334 336 338 341
313 317 312 304 294 287 288 293 295 298 300 301 302 300 301 303 312 316 319 330 344 347 350 351 347 353 352 351 352 352 353 353 351 350 349 347 345 344 343 341 339 338 338 336 334 332 331 335 338
316 315 303 298 291 288 289 292 295 298 299 299 298 303 303 305 312 315 321 331 345 345 349 348 347 352 352 352 352 352 352 351 350 349 348 347 345 343 342 340 338 337 336 334 331 330 330 333 334
308 308 302 293 289 292 293 294 298 298 298 301 301 299 305 315 316 321 326 334 338 344 348 346 348 351 351 351 351 351 350 351 350 349 348 347 344 342 341 339 338 336 334 331 329 327 328 328 329
306 301 295 290 289 292 294 298 298 298 297 297 300 297 301 313 319 322 325 332 334 343 346 347 346 348 349 350 350 349 348 349 350 348 348 346 344 342 340 339 338 336 333 330 326 325 324 324 324
302 298 291 288 288 293 295 298 298 295 295 297 299 298 300 310 317 319 326 327 335 343 344 346 340 343 346 347 347 347 348 348 348 348 347 346 344 342 340 339 338 336 334 331 326 323 321 320 319
298 294 290 290 290 293 296 298 294 296 295 296 300 296 298 303 310 315 316 316 316 321 333 340 342 339 339 343 342 344 345 345 345 345 345 343 342 342 341 340 338 336 334 332 328 321 318 316 316
299 294 289 290 291 291 297 298 298 298 296 300 300 295 294 299 308 311 312 311 309 310 313 315 327 341 341 340 336 338 340 341 342 340 338 336 337 337 336 334 337 336 334 332 328 321 318 315 315
299 290 287 290 292 294 297 296 298 299 299 298 299 298 300 303 307 307 306 305 305 307 307 308 310 317 335 338 337 334 336 337 336 335 331 330 335 335 333 332 335 335 334 331 328 324 318 314 315
296 290 291 294 294 295 298 297 298 296 296 296 297 300 302 302 303 302 300 299 300 301 304 306 308 309 314 333 339 339 338 338 339 337 334 337 336 333 331 327 329 331 331 330 328 326 323 315 306
295 291 294 296 299 299 298 297 298 297 293 296 297 298 300 300 300 299 299 299 300 301 305 308 309 309 310 322 334 337 336 334 333 335 336 333 333 330 326 325 324 324 324 325 323 320 316 311 309
291 297 297 301 300 299 297 299 296 296 295 298 299 300 299 298 298 298 298 299 300 303 307 309 312 314 310 312 332 334 332 330 328 331 335 334 331 331 329 330 330 325 326 324 322 319 318 314 311
294 296 298 300 299 298 300 297 296 295 297 298 299 299 297 297 297 297 299 300 301 304 305 307 311 314 315 312 330 328 324 323 324 327 330 329 328 329 328 326 324 323 321 319 318 318 316 312 313
297 298 297 299 299 299 297 295 296 295 296 297 298 296 295 296 296 296 297 298 302 304 304 307 314 314 318 323 321 320 321 320 320 320 321 324 324 322 322 319 319 318 319 317 314 313 311 312 310
298 293 295 296 298 297 297 293 294 296 296 296 296 295 295 295 296 294 296 298 302 303 304 307 311 312 313 315 316 316 316 316 315 315 316 315 315 313 314 314 313 314 313 312 312 312 310 308 309
292 291 289 296 297 296 295 289 296 296 295 294 294 292 294 295 295 295 297 301 301 302 303 306 308 307 309 311 311 311 312 312 312 311 311 312 312 311 310 310 311 311 311 310 306 306 303 301 301
290 286 289 293 296 295 293 290 294 295 295 293 292 292 293 292 293 294 297 300 300 302 304 305 305 305 305 306 306 305 304 304 304 305 303 304 307 307 305 304 303 302 301 301 304 301 299 296 296
287 287 290 290 294 293 291 291 293 295 294 293 292 292 292 292 292 294 297 299 301 301 302 304 304 303 303 303 302 300 299 298 298 297 297 299 300 301 300 298 297 297 296 295 298 297 296 293 293
291 289 288 292 295 292 291 291 293 294 293 292 292 292 292 292 292 294 297 298 300 301 303 303 303 303 302 302 299 297 294 293 292 292 292 293 294 294 294 293 291 291 290 289 292 295 291 289 290
292 289 289 292 294 292 290 291 294 293 294 295 295 293 293 290 291 293 296 297 298 300 302 304 304 305 304 302 298 295 292 290 289 290 290 290 291 291 291 290 289 288 288 287 287 287 288 287 286
291 289 288 290 291 290 288 288 290 294 295 294 296 296 294 291 290 291 294 296 297 298 301 304 304 303 299 296 294 291 290 288 287 287 287 288 289 289 289 288 288 287 287 286 285 285 285 283 285
289 294 293 292 288 284 289 283 289 291 293 293 295 293 293 290 291 293 294 294 295 297 302 302 300 297 295 295 292 290 288 286 284 285 286 286 287 287 287 287 287 286 285 285 285 285 284 283 281
291 293 291 290 287 285 285 282 287 293 293 296 295 294 292 291 291 292 294 295 293 295 297 297 296 296 294 292 290 288 286 286 286 285 285 285 285 285 285 285 285 285 285 283 283 282 282 282 281
294 291 290 288 286 280 286 285 286 291 294 296 293 291 290 290 291 292 292 291 290 291 292 292 290 289 290 290 288 287 286 285 284 284 283 283 284 284 284 284 283 283 283 282 282 282 281 281 281
292 288 281 279 278 280 286 284 290 292 294 295 294 291 290 290 289 290 289 289 288 287 287 287 288 287 288 288 287 286 286 286 284 284 283 283 282 282 282 282 281 281 282 282 281 281 281 280 280
289 288 282 276 277 279 283 281 288 293 293 292 294 294 291 289 290 289 288 288 287 287 286 286 286 286 287 287 286 287 287 286 286 285 284 283 282 282 282 281 281 281 281 281 281 280 280 279 279
287 286 292 284 273 276 283 286 291 290 290 289 290 291 289 289 288 287 286 287 286 285 285 286 286 285 286 286 286 286 286 285 285 283 283 282 282 282 281 280 280 280 280 280 280 279 278 278 278
290 292 284 283 274 273 280 282 286 287 289 288 288 288 288 288 287 286 286 286 286 286 284 284 285 285 285 285 286 285 284 284 283 283 282 281 281 281 280 279 279 279 279 279 278 277 277 277 277
288 286 287 287 283 276 275 284 290 292 292 288 290 290 289 289 287 287 286 285 285 284 284 284 284 284 284 285 284 284 283 283 283 282 281 280 280 280 279 279 279 278 278 277 277 276 276 276 276
289 289 287 283 280 281 280 286 289 289 291 291 290 291 291 291 289 287 287 285 284 284 283 283 283 283 284 284 284 283 283 283 282 281 280 280 279 279 279 279 278 278 277 277 276 276 276 276 276

GFSSGP_sfc_thetae_054.txt.gz
Theta_e
319 311 309 309 298 292 287 290 293 295 294 297 303 304 301 302 300 293 317 336 344 346 347 348 349 353 353 353 353 352 351 351 350 349 347 345 343 343 341 340 339 339 337 336 334 335 339 340 341
316 315 310 300 290 285 287 290 294 296 298 301 301 300 302 303 311 314 318 340 345 347 349 348 348 351 352 352 352 352 351 350 349 348 345 344 343 342 340 338 338 337 335 334 333 333 336 336 338
313 311 302 295 288 286 288 291 294 297 299 297 298 303 303 305 312 314 320 340 345 345 348 347 348 351 351 351 352 352 351 351 349 348 346 344 343 341 340 338 336 334 332 331 330 330 330 332 334
307 306 300 291 287 289 292 293 295 296 296 300 300 299 307 313 314 319 327 343 343 345 347 345 348 351 351 351 351 351 351 350 349 348 346 344 342 341 340 338 335 333 330 328 327 327 327 327 329
304 299 292 288 287 291 291 295 297 296 294 296 298 296 303 312 317 323 329 338 339 342 345 345 346 349 350 350 350 350 350 349 348 347 346 344 342 340 340 338 336 334 331 327 325 324 323 323 325
300 296 289 286 287 291 293 297 297 293 294 298 298 298 299 309 319 320 322 324 335 342 345 345 339 342 345 347 347 346 348 348 348 347 345 343 342 341 340 338 336 335 333 328 322 320 319 320 321
296 292 289 287 289 291 295 297 294 293 294 294 300 296 299 304 313 315 313 313 317 328 331 340 341 340 339 341 341 343 344 345 345 346 345 343 342 341 340 338 336 335 333 327 322 319 318 318 318
297 292 287 288 289 290 295 295 296 296 295 299 298 294 296 302 310 311 308 307 307 309 312 316 334 339 340 341 335 337 339 340 341 340 338 336 336 337 336 334 336 334 332 327 323 320 318 317 317
295 288 286 288 290 292 295 294 296 297 297 296 297 296 298 303 307 305 303 303 304 306 306 308 314 322 336 341 336 334 335 336 336 334 331 330 334 335 333 332 334 334 332 329 326 322 318 315 317
294 287 290 293 293 293 296 295 297 295 294 294 295 298 300 302 304 303 300 299 299 301 305 307 308 310 317 333 339 338 338 339 339 335 333 334 335 333 331 326 328 331 330 331 328 324 319 312 305
292 290 293 294 297 297 296 294 296 294 292 295 295 298 299 299 300 299 298 298 299 300 305 309 311 310 309 323 334 339 336 336 335 334 334 335 332 330 327 323 323 322 322 321 320 315 311 308 307
289 294 294 298 298 297 296 296 295 295 295 298 298 298 297 297 297 297 298 298 300 303 304 307 309 311 310 313 330 333 332 330 329 331 335 333 330 328 327 328 326 325 320 318 317 315 313 312 309
292 294 296 298 298 296 298 295 295 294 294 297 298 298 297 296 296 297 298 299 301 304 303 306 309 312 314 311 329 327 325 324 324 328 330 332 331 329 327 324 323 322 320 316 316 316 311 310 311
295 296 296 297 297 297 296 294 295 294 295 296 297 296 295 296 296 295 297 298 302 304 303 306 312 315 317 324 322 321 321 321 321 321 323 324 325 323 320 318 318 317 317 314 311 311 309 308 309
296 291 293 295 297 296 296 292 294 295 294 295 295 294 294 295 295 295 296 297 302 303 305 306 309 314 313 316 317 317 317 317 316 316 316 316 317 317 316 314 313 313 313 313 312 310 308 304 305
291 290 287 293 295 295 294 288 295 294 294 293 293 291 293 294 294 294 295 299 301 302 303 305 309 310 312 313 313 313 313 313 313 313 313 312 311 311 312 311 310 311 310 307 305 303 298 297 298
288 285 286 291 295 293 292 290 294 293 293 292 291 291 292 292 292 293 295 300 300 301 302 302 304 307 307 307 306 305 305 305 305 307 306 305 306 305 303 301 300 301 300 301 298 294 294 294 296
285 285 287 288 292 291 289 290 292 293 293 293 291 291 291 291 292 293 296 299 300 301 301 302 304 304 303 302 301 300 298 297 299 300 299 299 300 299 297 295 294 295 296 295 294 290 289 290 294
289 287 287 290 294 291 290 290 293 293 291 291 290 291 291 292 292 293 297 298 299 299 300 300 303 302 303 301 299 298 293 294 294 294 293 294 294 294 292 291 290 290 290 290 291 290 286 287 287
289 287 287 290 293 291 290 289 292 292 292 294 294 293 293 290 290 292 295 296 298 299 300 300 301 302 303 303 297 294 292 291 291 290 290 290 291 290 289 288 287 287 287 285 285 287 285 284 284
289 287 287 289 290 289 287 286 289 293 293 293 296 296 295 293 291 291 295 295 296 298 299 301 301 302 300 295 293 291 290 290 289 286 287 288 289 288 288 287 286 286 285 284 283 284 284 282 283
287 292 292 290 287 283 288 282 287 290 292 292 295 293 294 293 292 292 295 295 296 297 299 301 305 298 295 295 292 291 290 287 285 285 285 286 286 286 286 286 285 284 284 283 283 284 283 282 280
290 292 290 289 285 283 285 282 285 289 290 293 296 294 293 292 292 292 294 297 297 298 301 299 297 295 294 294 293 291 286 286 285 284 284 284 284 284 284 284 284 283 283 282 282 282 282 282 281
293 290 289 286 285 279 286 284 285 288 292 294 297 296 293 291 291 293 294 296 295 294 297 297 296 294 293 293 291 289 286 284 284 283 282 282 282 282 283 283 283 283 283 282 282 281 281 280 280
291 289 280 279 277 280 284 282 289 291 294 294 297 294 290 290 290 291 292 294 292 291 293 295 294 292 291 289 288 288 286 285 284 283 282 282 281 280 281 282 283 282 282 282 281 281 280 280 280
289 288 281 274 276 278 282 280 287 292 295 294 292 291 289 288 290 291 292 293 292 290 290 293 292 289 289 287 286 286 285 284 284 283 283 282 282 282 281 281 281 281 281 281 281 280 280 279 278
287 285 290 284 271 275 282 285 290 291 291 291 291 288 286 287 288 289 291 291 289 288 287 290 289 289 287 286 286 285 285 284 283 282 282 282 281 281 280 280 280 280 280 279 279 279 278 277 277
289 291 283 282 273 272 280 281 286 287 289 291 290 288 287 287 287 287 288 288 288 288 286 286 288 286 285 285 285 285 285 284 284 283 281 281 280 280 279 279 278 279 279 279 278 277 277 277 276
286 285 286 286 282 276 274 282 288 292 292 291 291 289 287 286 286 286 287 287 286 286 284 284 284 284 284 285 285 284 284 283 283 281 281 280 280 279 279 279 279 278 278 278 277 277 276 276 276
288 287 286 281 279 280 280 286 289 291 292 292 291 290 288 288 287 286 285 285 284 283 283 283 283 284 284 284 284 284 283 282 281 281 280 280 280 279 279 279 278 278 277 277 277 276 276 276 276

GFSSGP_sfc_thetae_057.txt.gz
Theta_e
318 311 309 306 295 291 287 289 291 293 294 298 302 299 298 302 298 291 316 327 336 342 346 347 351 352 352 352 352 351 351 350 348 346 344 343 342 340 340 339 338 337 336 335 337 339 340 341 339
315 312 307 298 289 285 286 290 293 294 300 301 300 300 303 302 310 314 318 338 343 344 346 346 347 352 353 352 352 351 350 350 347 345 344 343 341 339 338 337 335 334 333 333 333 335 336 337 336
311 308 301 293 286 285 287 290 292 296 299 295 299 302 303 304 311 313 320 341 344 344 346 345 347 348 351 352 351 351 350 350 348 345 344 342 341 339 337 335 332 331 329 329 330 330 332 333 334
306 304 296 290 287 288 290 293 293 296 294 298 299 299 307 312 312 318 327 341 343 343 345 344 347 350 351 351 351 350 349 348 348 345 343 342 341 339 338 336 333 329 327 327 326 327 329 329 330
302 297 290 287 289 291 290 293 294 295 293 294 296 297 303 310 317 324 335 339 338 341 343 344 345 348 349 350 350 350 348 348 347 346 343 342 341 339 338 337 335 331 326 324 324 324 325 325 326
298 294 288 285 286 291 292 294 295 292 294 296 298 298 303 308 318 318 328 329 336 340 343 344 339 342 345 347 348 348 348 347 346 346 343 342 341 339 338 336 335 332 326 322 321 321 322 322 323
295 291 288 286 287 290 293 295 293 293 294 294 300 296 300 306 314 314 315 318 324 332 338 343 341 339 337 341 342 344 344 345 344 344 343 342 341 340 338 337 335 332 328 324 321 320 320 319 320
294 292 286 286 288 289 294 294 294 294 293 296 297 294 299 304 312 309 308 308 309 314 317 327 337 338 338 340 334 336 339 341 342 340 338 336 336 337 335 333 335 332 328 325 322 320 319 319 318
293 287 285 288 289 291 294 293 295 294 296 294 296 296 298 306 307 305 305 305 306 307 308 310 324 329 339 340 335 332 334 335 335 334 331 329 332 335 333 331 333 332 330 327 324 320 318 315 315
291 285 289 292 291 292 294 293 296 294 293 292 294 296 300 305 303 305 305 304 302 303 308 307 310 315 322 336 337 336 336 338 338 334 333 333 334 333 332 326 328 329 328 330 325 321 316 309 303
290 288 291 293 295 296 295 293 294 293 291 294 295 297 298 301 302 302 300 301 301 300 305 309 310 310 311 322 335 336 335 335 337 332 333 334 331 329 328 325 322 321 319 318 315 311 309 307 306
291 293 292 296 296 295 294 296 293 294 295 296 297 298 297 299 300 299 298 298 299 302 305 307 309 311 311 311 328 334 331 333 333 334 334 331 329 326 325 325 324 322 318 315 313 311 310 309 309
290 292 294 296 296 294 296 294 293 294 294 294 297 298 297 297 297 297 298 298 299 302 304 305 307 310 312 309 330 329 327 328 328 331 333 332 329 328 327 324 322 321 319 315 312 311 310 309 309
294 294 294 295 295 295 294 292 294 293 294 294 296 296 295 296 296 294 296 297 299 302 303 305 309 311 312 318 324 323 323 323 323 323 326 328 327 324 321 319 318 317 316 314 313 311 308 307 310
294 291 292 293 295 294 295 291 293 293 294 294 294 294 294 295 295 295 296 297 299 302 303 305 310 315 313 319 318 318 319 319 319 318 319 320 321 319 317 316 314 314 314 312 309 306 305 304 304
290 289 287 291 294 293 293 287 294 294 293 293 292 291 293 294 294 294 295 296 300 301 302 304 311 313 314 315 315 314 315 315 315 315 315 315 315 316 314 312 310 310 308 306 304 301 300 298 299
287 284 285 290 294 292 290 288 292 291 292 292 291 291 292 292 292 293 294 295 300 300 302 302 305 310 310 309 308 307 307 308 309 310 310 309 308 309 309 306 305 305 302 297 295 293 295 297 297
284 284 286 286 291 290 288 289 292 291 291 292 290 290 291 292 294 293 293 297 299 300 301 301 305 306 306 304 302 301 300 299 301 303 303 302 301 301 301 299 300 298 294 291 290 291 290 292 294
288 285 285 289 292 290 289 290 293 292 290 290 290 291 292 292 294 292 293 297 298 299 299 300 303 304 303 302 301 301 296 296 296 296 296 297 295 293 293 292 292 292 291 289 289 288 292 287 288
287 286 286 289 291 290 289 289 291 291 291 293 293 293 292 293 290 291 292 295 297 298 299 299 301 303 303 303 296 296 294 291 292 293 293 293 291 290 291 290 288 287 287 286 286 286 284 283 283
287 286 285 288 288 288 286 286 288 292 292 292 294 296 295 295 292 291 292 295 297 298 298 300 301 303 304 294 293 291 291 291 290 290 290 289 289 288 288 286 286 285 285 284 283 283 283 281 282
286 291 290 288 286 282 286 282 286 289 291 291 294 294 295 295 293 292 292 295 297 299 299 301 300 302 296 295 294 294 294 292 290 289 288 286 286 285 285 285 284 283 283 283 282 283 282 282 280
289 291 289 287 284 283 283 281 284 287 288 292 295 295 296 295 293 292 293 296 297 299 299 300 301 297 295 295 295 294 293 288 288 287 286 283 284 284 284 283 283 283 283 282 282 282 282 282 280
292 289 287 285 283 279 286 283 286 286 291 292 295 296 294 292 291 291 293 295 296 297 299 300 300 296 293 294 293 291 288 286 286 285 284 282 282 282 282 282 282 282 282 282 282 281 281 281 281
290 288 280 278 276 279 282 281 289 289 292 293 295 295 292 290 288 289 291 294 294 295 299 301 298 292 293 293 291 289 288 288 286 284 283 282 281 280 280 281 281 281 281 281 281 280 280 280 280
288 288 281 274 274 277 282 280 286 291 294 293 293 293 290 288 288 289 291 294 294 295 297 298 296 291 291 291 290 289 288 287 286 285 283 282 281 281 280 280 280 280 281 280 280 279 279 279 278
286 284 289 283 271 275 282 284 289 291 290 291 292 290 287 289 287 288 290 293 293 294 295 297 293 291 291 290 289 288 287 286 285 282 281 281 280 281 280 280 280 280 280 280 279 279 278 278 277
288 291 283 281 273 271 279 280 284 288 290 292 292 290 288 287 286 287 289 291 292 292 291 291 291 290 290 289 288 287 286 285 282 282 281 280 280 281 280 280 280 279 279 278 278 277 278 277 276
286 285 284 285 281 275 273 282 288 292 292 292 292 292 290 288 286 286 288 289 289 289 287 287 288 288 288 287 287 285 284 283 282 282 281 280 280 280 280 280 279 279 278 278 277 277 277 277 276
287 286 287 281 277 279 279 284 290 290 292 291 293 292 288 287 286 285 286 286 285 285 285 285 285 286 288 287 286 284 283 282 282 281 280 280 280 280 280 279 279 279 278 277 277 277 276 276 276

GFSSGP_sfc_thetae_060.txt.gz
Theta_e
318 310 308 303 295 290 286 288 290 292 293 299 299 296 296 301 296 289 313 327 339 340 344 345 349 351 352 352 352 351 351 348 346 344 343 341 340 339 338 337 336 336 337 338 340 341 340 343 341
314 310 305 295 289 284 286 288 291 293 300 301 300 299 302 300 309 314 319 335 340 342 344 345 346 350 351 352 349 351 351 348 345 344 343 341 339 337 336 334 333 332 333 334 337 339 338 340 339
309 306 300 291 285 284 286 289 291 295 299 293 298 303 303 304 310 312 319 340 342 342 344 344 347 350 351 351 351 350 350 348 345 343 343 341 340 337 335 332 330 329 330 330 334 335 337 337 337
305 302 294 289 288 289 291 291 293 296 294 297 301 300 305 312 312 317 330 340 340 341 343 343 347 351 351 351 350 349 349 348 345 343 342 341 340 338 336 333 329 328 327 328 330 331 332 333 331
300 296 289 286 287 290 289 292 295 295 291 294 296 297 302 309 315 322 332 339 338 340 341 342 345 347 349 350 349 349 348 348 346 343 342 341 340 338 337 335 330 326 325 325 327 328 328 329 326
297 293 287 285 286 290 294 292 294 291 292 294 298 301 304 306 316 318 332 332 335 340 341 342 339 342 345 347 348 348 346 346 346 344 342 341 339 338 336 335 331 326 323 323 324 324 324 325 322
295 290 286 286 286 289 292 294 291 293 294 294 300 298 300 305 313 315 320 324 332 336 338 340 340 339 338 340 342 344 344 345 344 344 343 341 340 339 337 336 332 329 326 323 322 321 322 321 320
293 291 284 285 287 288 293 293 292 294 292 296 296 294 297 306 312 310 312 313 316 322 327 333 336 337 338 338 334 337 339 341 341 340 337 335 335 335 334 332 333 330 327 324 323 321 321 319 317
291 287 285 287 288 290 292 292 291 293 294 293 295 295 298 308 307 308 308 308 310 311 314 317 330 335 337 340 335 332 334 336 335 334 331 328 333 333 330 329 332 331 329 325 322 319 316 315 314
289 285 287 290 289 290 292 292 294 293 292 292 293 295 300 307 305 309 310 311 309 307 309 310 313 325 329 339 337 335 336 337 338 335 331 331 333 333 331 325 326 327 326 324 321 318 314 308 303
289 286 290 292 293 294 293 291 294 293 290 294 295 296 301 304 305 309 310 310 309 305 306 311 310 312 318 325 335 333 332 333 333 332 332 334 331 328 328 325 322 319 317 313 312 309 308 307 306
290 291 291 294 295 293 292 294 292 292 294 294 295 297 299 302 303 305 306 304 302 302 304 308 309 310 311 314 324 334 332 333 332 332 332 332 330 327 325 323 323 318 315 312 310 309 309 308 306
291 292 292 294 294 293 295 293 293 293 294 294 295 298 298 300 300 299 300 299 299 300 303 306 306 309 311 310 322 330 331 331 332 333 332 330 328 326 324 324 322 319 315 312 309 310 308 307 306
292 293 292 293 294 293 293 294 295 295 293 293 294 295 296 297 299 296 296 297 297 300 302 304 306 309 310 310 326 326 326 326 327 328 331 330 328 326 322 320 318 316 316 314 313 311 309 308 305
293 290 291 291 293 292 295 290 293 295 292 294 293 293 294 295 296 298 297 296 297 299 301 303 306 309 311 314 321 320 321 322 321 321 324 326 325 323 320 317 315 314 314 311 308 306 307 304 300
289 288 286 289 293 292 292 286 293 292 293 293 293 292 293 294 295 294 295 296 297 299 301 303 310 310 315 316 316 316 317 317 317 317 317 319 320 319 317 314 312 312 309 307 304 304 302 299 296
286 283 284 289 292 290 289 287 291 290 291 292 291 291 292 292 293 293 294 295 296 299 300 302 305 310 313 310 310 309 310 311 312 313 313 312 314 314 312 310 308 306 303 301 300 297 298 295 292
284 283 284 285 289 288 287 288 291 291 291 291 291 291 291 292 294 295 293 294 296 298 300 301 303 307 308 305 304 303 302 302 304 307 307 307 307 307 307 305 302 298 296 295 294 295 292 294 289
286 284 285 287 291 288 288 288 291 292 289 290 290 290 292 293 297 293 293 293 296 297 299 299 303 303 305 304 304 303 299 299 298 299 300 301 301 301 302 300 297 294 292 292 295 294 292 288 288
286 285 285 288 289 289 288 288 292 291 291 292 293 293 293 293 291 291 291 293 296 297 299 299 305 302 305 307 301 299 296 293 294 295 295 296 296 296 296 295 290 289 289 290 290 291 284 283 284
286 284 284 287 287 287 285 285 287 291 291 292 292 295 294 295 295 291 291 292 295 296 298 300 304 303 304 298 294 293 294 293 293 292 292 291 292 291 290 289 287 286 287 289 286 285 286 282 281
285 289 288 286 285 281 285 280 285 289 290 291 294 292 294 295 294 293 292 291 294 297 299 300 301 304 303 296 295 297 296 294 293 291 290 289 289 288 287 286 285 284 283 283 283 282 282 282 280
288 290 288 287 283 282 281 281 284 286 288 292 294 294 294 295 293 292 292 293 295 297 298 300 300 302 297 297 297 298 295 289 290 288 287 287 286 286 284 284 283 282 282 281 282 281 281 281 280
291 288 287 284 283 279 283 283 284 285 290 291 295 294 294 293 291 291 291 292 294 297 298 299 299 297 295 297 297 297 290 289 288 287 286 285 285 282 282 282 281 281 281 281 280 280 281 280 280
289 287 280 277 275 278 280 280 287 288 290 292 294 294 291 291 289 289 289 291 293 295 298 300 300 296 295 295 295 294 292 291 290 287 286 284 283 280 280 281 281 281 281 281 281 280 280 280 280
287 288 280 272 273 277 281 279 284 290 293 292 292 293 291 290 289 288 289 291 293 295 298 300 301 297 294 294 291 291 291 291 290 289 287 286 284 282 281 280 280 280 280 280 280 280 279 279 279
286 284 288 282 269 274 281 282 288 290 291 290 292 290 290 290 290 288 288 291 292 294 297 299 298 295 294 293 289 289 290 289 288 286 286 285 284 282 280 280 279 280 280 280 279 279 279 279 278
288 289 282 280 273 270 279 280 283 287 290 291 291 291 290 289 289 287 288 290 291 293 296 298 297 293 293 292 290 289 289 288 287 285 283 282 282 281 280 279 280 279 279 279 279 278 278 278 278
286 284 283 284 280 274 272 282 286 289 290 291 292 292 291 290 288 287 287 289 290 291 291 293 293 292 290 290 289 289 287 286 285 284 283 282 281 280 280 280 280 279 279 279 279 279 278 278 277
285 285 285 280 277 277 278 284 289 290 290 290 292 291 289 289 288 286 287 287 287 288 287 288 291 291 290 289 288 287 286 285 284 284 282 281 280 280 280 280 280 279 279 279 279 278 278 278 277